| time (UTC) | temp C | wind direction | speed KPH | gust KPH | rain 1hr cm | rain 24hr cm | rain mn cm | humidity % | barometer mb |
| 20260503203318 | 20 | 215 | 4.8 | 27.4 | 0.00 | 0.00 | 0.00 | 59 | 1011.8 |
| 20260503203246 | 20 | 239 | 4.8 | 27.4 | 0.00 | 0.00 | 0.00 | 58 | 1011.9 |
| 20260503203217 | 20 | 240 | 4.8 | 27.4 | 0.00 | 0.00 | 0.00 | 58 | 1011.9 |
| 20260503203111 | 20 | 239 | 3.2 | 27.4 | 0.00 | 0.00 | 0.00 | 59 | 1011.8 |
| 20260503203011 | 20 | 307 | 3.2 | 12.9 | 0.00 | 0.00 | 0.00 | 60 | 1011.8 |
| 20260503202912 | 20 | 221 | 4.8 | 12.9 | 0.00 | 0.00 | 0.00 | 62 | 1011.9 |
| 20260503202812 | 20 | 322 | 4.8 | 12.9 | 0.00 | 0.00 | 0.00 | 61 | 1011.9 |
| 20260503202744 | 20 | 195 | 4.8 | 12.9 | 0.00 | 0.00 | 0.00 | 61 | 1011.9 |
| 20260503202710 | 20 | 219 | 4.8 | 12.9 | 0.00 | 0.00 | 0.00 | 61 | 1011.9 |
| 20260503202604 | 20 | 248 | 4.8 | 12.9 | 0.00 | 0.00 | 0.00 | 61 | 1011.8 |
| 20260503202504 | 20 | 312 | 6.4 | 14.5 | 0.00 | 0.00 | 0.00 | 60 | 1011.9 |
| 20260503202403 | 20 | 211 | 6.4 | 14.5 | 0.00 | 0.00 | 0.00 | 60 | 1011.9 |
| 20260503202304 | 20 | 219 | 8.0 | 20.9 | 0.00 | 0.00 | 0.00 | 60 | 1011.8 |
| 20260503202246 | 20 | 236 | 8.0 | 20.9 | 0.00 | 0.00 | 0.00 | 60 | 1011.8 |
| 20260503202203 | 20 | 236 | 8.0 | 20.9 | 0.00 | 0.00 | 0.00 | 60 | 1011.8 |
| 20260503202104 | 20 | 250 | 8.0 | 20.9 | 0.00 | 0.00 | 0.00 | 61 | 1011.9 |
| 20260503202013 | 19 | 224 | 8.0 | 20.9 | 0.00 | 0.00 | 0.00 | 61 | 1011.8 |
| 20260503202004 | 20 | 207 | 8.0 | 20.9 | 0.00 | 0.00 | 0.00 | 61 | 1011.9 |
| 20260503201904 | 19 | 204 | 8.0 | 20.9 | 0.00 | 0.00 | 0.00 | 61 | 1011.8 |
| 20260503201846 | 19 | 231 | 8.0 | 20.9 | 0.00 | 0.00 | 0.00 | 61 | 1011.8 |
| 20260503201704 | 19 | 242 | 8.0 | 20.9 | 0.00 | 0.00 | 0.00 | 62 | 1011.8 |
| 20260503201603 | 19 | 214 | 8.0 | 20.9 | 0.00 | 0.00 | 0.00 | 60 | 1011.8 |
| 20260503201501 | 19 | 256 | 8.0 | 20.9 | 0.00 | 0.00 | 0.00 | 60 | 1011.8 |
| 20260503201402 | 19 | 233 | 8.0 | 20.9 | 0.00 | 0.00 | 0.00 | 60 | 1011.8 |
| 20260503201302 | 19 | 266 | 6.4 | 20.9 | 0.00 | 0.00 | 0.00 | 60 | 1011.8 |
| 20260503201240 | 19 | 256 | 6.4 | 20.9 | 0.00 | 0.00 | 0.00 | 60 | 1011.7 |
| 20260503201200 | 19 | 235 | 6.4 | 19.3 | 0.00 | 0.00 | 0.00 | 61 | 1011.7 |
| 20260503201100 | 19 | 218 | 6.4 | 19.3 | 0.00 | 0.00 | 0.00 | 61 | 1011.8 |
| 20260503200958 | 19 | 200 | 6.4 | 19.3 | 0.00 | 0.00 | 0.00 | 61 | 1011.8 |
| 20260503200858 | 19 | 303 | 4.8 | 19.3 | 0.00 | 0.00 | 0.00 | 61 | 1011.8 |
| 20260503200758 | 19 | 217 | 6.4 | 14.5 | 0.00 | 0.00 | 0.00 | 62 | 1011.8 |
| 20260503200741 | 19 | 233 | 6.4 | 16.1 | 0.00 | 0.00 | 0.00 | 62 | 1011.8 |
| 20260503200658 | 19 | 225 | 6.4 | 16.1 | 0.00 | 0.00 | 0.00 | 61 | 1011.8 |
| 20260503200558 | 19 | 176 | 4.8 | 16.1 | 0.00 | 0.00 | 0.00 | 60 | 1011.8 |
| 20260503200457 | 19 | 228 | 4.8 | 16.1 | 0.00 | 0.00 | 0.00 | 61 | 1011.8 |
| 20260503200352 | 19 | 236 | 4.8 | 16.1 | 0.00 | 0.00 | 0.00 | 61 | 1011.9 |
| 20260503200251 | 19 | 252 | 6.4 | 20.9 | 0.00 | 0.00 | 0.00 | 60 | 1011.8 |
| 20260503200240 | 19 | 278 | 6.4 | 20.9 | 0.00 | 0.00 | 0.00 | 60 | 1011.8 |
| 20260503200152 | 19 | 248 | 6.4 | 20.9 | 0.00 | 0.00 | 0.00 | 61 | 1011.8 |
| 20260503200052 | 19 | 165 | 4.8 | 20.9 | 0.00 | 0.00 | 0.00 | 61 | 1011.8 |
| 20260503195950 | 19 | 270 | 6.4 | 20.9 | 0.00 | 0.00 | 0.00 | 60 | 1011.8 |
| 20260503195844 | 20 | 278 | 6.4 | 20.9 | 0.00 | 0.00 | 0.00 | 60 | 1011.8 |
| 20260503195747 | 20 | 305 | 6.4 | 20.9 | 0.00 | 0.00 | 0.00 | 61 | 1011.8 |
| 20260503195741 | 20 | 285 | 6.4 | 20.9 | 0.00 | 0.00 | 0.00 | 61 | 1011.8 |
| 20260503195644 | 19 | 172 | 6.4 | 20.9 | 0.00 | 0.00 | 0.00 | 62 | 1011.8 |
| 20260503195543 | 19 | 290 | 6.4 | 20.9 | 0.00 | 0.00 | 0.00 | 62 | 1011.8 |
| 20260503195443 | 19 | 269 | 6.4 | 20.9 | 0.00 | 0.00 | 0.00 | 63 | 1011.8 |
| 20260503195339 | 19 | 271 | 6.4 | 20.9 | 0.00 | 0.00 | 0.00 | 62 | 1011.8 |
| 20260503195239 | 19 | 278 | 4.8 | 17.7 | 0.00 | 0.00 | 0.00 | 62 | 1011.8 |
| 20260503195138 | 19 | 238 | 4.8 | 17.7 | 0.00 | 0.00 | 0.00 | 62 | 1011.7 |
| 20260503195038 | 19 | 266 | 4.8 | 17.7 | 0.00 | 0.00 | 0.00 | 62 | 1011.8 |
| 20260503194935 | 19 | 215 | 6.4 | 20.9 | 0.00 | 0.00 | 0.00 | 62 | 1011.7 |
| 20260503194830 | 18 | 205 | 6.4 | 20.9 | 0.00 | 0.00 | 0.00 | 62 | 1011.8 |
| 20260503194741 | 18 | 274 | 6.4 | 20.9 | 0.00 | 0.00 | 0.00 | 63 | 1011.8 |
| 20260503194729 | 18 | 274 | 6.4 | 20.9 | 0.00 | 0.00 | 0.00 | 62 | 1011.8 |
| 20260503194628 | 18 | 221 | 4.8 | 20.9 | 0.00 | 0.00 | 0.00 | 63 | 1011.8 |
| 20260503194528 | 18 | 246 | 6.4 | 20.9 | 0.00 | 0.00 | 0.00 | 63 | 1011.8 |
| 20260503194427 | 18 | 236 | 8.0 | 20.9 | 0.00 | 0.00 | 0.00 | 64 | 1011.8 |
| 20260503194322 | 18 | 217 | 8.0 | 25.7 | 0.00 | 0.00 | 0.00 | 64 | 1011.8 |
| 20260503194239 | 18 | 285 | 8.0 | 25.7 | 0.00 | 0.00 | 0.00 | 64 | 1011.8 |
| 20260503194222 | 18 | 242 | 8.0 | 25.7 | 0.00 | 0.00 | 0.00 | 63 | 1011.8 |
| 20260503194122 | 18 | 255 | 8.0 | 25.7 | 0.00 | 0.00 | 0.00 | 62 | 1011.8 |
| 20260503194022 | 18 | 226 | 8.0 | 25.7 | 0.00 | 0.00 | 0.00 | 63 | 1011.8 |
| 20260503193919 | 18 | 236 | 8.0 | 25.7 | 0.00 | 0.00 | 0.00 | 63 | 1011.8 |
| 20260503193814 | 18 | 228 | 9.7 | 25.7 | 0.00 | 0.00 | 0.00 | 64 | 1011.8 |
| 20260503193740 | 18 | 300 | 9.7 | 25.7 | 0.00 | 0.00 | 0.00 | 64 | 1011.8 |
| 20260503193713 | 18 | 301 | 9.7 | 25.7 | 0.00 | 0.00 | 0.00 | 64 | 1011.8 |
| 20260503193614 | 18 | 255 | 11.3 | 25.7 | 0.00 | 0.00 | 0.00 | 63 | 1011.9 |
| 20260503193514 | 18 | 248 | 9.7 | 25.7 | 0.00 | 0.00 | 0.00 | 63 | 1011.9 |
| 20260503193413 | 18 | 197 | 9.7 | 25.7 | 0.00 | 0.00 | 0.00 | 62 | 1011.9 |
| 20260503193314 | 18 | 234 | 9.7 | 24.1 | 0.00 | 0.00 | 0.00 | 63 | 1012.0 |
| 20260503193231 | 18 | 203 | 9.7 | 24.1 | 0.00 | 0.00 | 0.00 | 63 | 1012.0 |
| 20260503193213 | 18 | 259 | 9.7 | 24.1 | 0.00 | 0.00 | 0.00 | 63 | 1012.0 |
| 20260503193114 | 18 | 238 | 11.3 | 24.1 | 0.00 | 0.00 | 0.00 | 63 | 1012.0 |
| 20260503193014 | 18 | 259 | 11.3 | 24.1 | 0.00 | 0.00 | 0.00 | 62 | 1012.0 |
| 20260503192913 | 18 | 263 | 9.7 | 24.1 | 0.00 | 0.00 | 0.00 | 63 | 1012.0 |
| 20260503192814 | 18 | 240 | 9.7 | 19.3 | 0.00 | 0.00 | 0.00 | 62 | 1012.0 |
| 20260503192729 | 18 | 238 | 11.3 | 24.1 | 0.00 | 0.00 | 0.00 | 63 | 1012.0 |
| 20260503192712 | 18 | 226 | 11.3 | 24.1 | 0.00 | 0.00 | 0.00 | 63 | 1012.0 |
| 20260503192611 | 18 | 221 | 11.3 | 24.1 | 0.00 | 0.00 | 0.00 | 63 | 1012.0 |
| 20260503192510 | 18 | 166 | 11.3 | 24.1 | 0.00 | 0.00 | 0.00 | 63 | 1012.0 |
| 20260503192456 | 18 | 246 | 9.7 | 24.1 | 0.00 | 0.00 | 0.00 | 64 | 1011.9 |
| 20260503192409 | 18 | 226 | 9.7 | 24.1 | 0.00 | 0.00 | 0.00 | 64 | 1011.9 |
| 20260503192341 | 18 | 190 | 9.7 | 24.1 | 0.00 | 0.00 | 0.00 | 64 | 1012.0 |
| 20260503192208 | 18 | 277 | 9.7 | 24.1 | 0.00 | 0.00 | 0.00 | 64 | 1011.9 |
| 20260503192108 | 17 | 149 | 9.7 | 24.1 | 0.00 | 0.00 | 0.00 | 63 | 1012.0 |
| 20260503192008 | 17 | 242 | 9.7 | 24.1 | 0.00 | 0.00 | 0.00 | 63 | 1012.0 |
| 20260503191907 | 17 | 233 | 8.0 | 24.1 | 0.00 | 0.00 | 0.00 | 63 | 1012.0 |
| 20260503191808 | 18 | 270 | 8.0 | 24.1 | 0.00 | 0.00 | 0.00 | 63 | 1012.0 |
| 20260503191734 | 18 | 253 | 6.4 | 22.5 | 0.00 | 0.00 | 0.00 | 63 | 1012.1 |
| 20260503191707 | 18 | 238 | 6.4 | 22.5 | 0.00 | 0.00 | 0.00 | 63 | 1012.1 |
| 20260503191602 | 18 | 236 | 6.4 | 16.1 | 0.00 | 0.00 | 0.00 | 63 | 1012.1 |
| 20260503191502 | 18 | 225 | 6.4 | 16.1 | 0.00 | 0.00 | 0.00 | 64 | 1012.1 |
| 20260503191451 | 18 | 245 | 6.4 | 17.7 | 0.00 | 0.00 | 0.00 | 64 | 1012.2 |
| 20260503191402 | 18 | 174 | 6.4 | 17.7 | 0.00 | 0.00 | 0.00 | 64 | 1012.1 |
| 20260503191339 | 18 | 233 | 6.4 | 17.7 | 0.00 | 0.00 | 0.00 | 63 | 1012.1 |
| 20260503191200 | 18 | 239 | 6.4 | 17.7 | 0.00 | 0.00 | 0.00 | 64 | 1012.2 |
| 20260503191056 | 18 | 225 | 6.4 | 17.7 | 0.00 | 0.00 | 0.00 | 65 | 1012.1 |
| 20260503190954 | 18 | 234 | 6.4 | 17.7 | 0.00 | 0.00 | 0.00 | 65 | 1012.1 |
| 20260503190854 | 18 | 274 | 6.4 | 17.7 | 0.00 | 0.00 | 0.00 | 65 | 1012.2 |
| 20260503190754 | 17 | 232 | 6.4 | 17.7 | 0.00 | 0.00 | 0.00 | 64 | 1012.1 |
| 20260503190652 | 17 | 273 | 6.4 | 20.9 | 0.00 | 0.00 | 0.00 | 64 | 1012.1 |
| 20260503190550 | 18 | 231 | 6.4 | 20.9 | 0.00 | 0.00 | 0.00 | 64 | 1012.2 |
| 20260503190450 | 18 | 236 | 6.4 | 20.9 | 0.00 | 0.00 | 0.00 | 65 | 1012.1 |
| 20260503190348 | 18 | 239 | 6.4 | 20.9 | 0.00 | 0.00 | 0.00 | 65 | 1012.2 |
| 20260503190248 | 17 | 239 | 6.4 | 20.9 | 0.00 | 0.00 | 0.00 | 65 | 1012.2 |
| 20260503190229 | 17 | 238 | 6.4 | 20.9 | 0.00 | 0.00 | 0.00 | 65 | 1012.2 |
| 20260503190145 | 17 | 226 | 6.4 | 20.9 | 0.00 | 0.00 | 0.00 | 65 | 1012.2 |
| 20260503190040 | 17 | 243 | 6.4 | 20.9 | 0.00 | 0.00 | 0.00 | 65 | 1012.1 |
| 20260503185939 | 17 | 225 | 6.4 | 20.9 | 0.00 | 0.00 | 0.00 | 65 | 1012.2 |
| 20260503185840 | 17 | 184 | 6.4 | 20.9 | 0.00 | 0.00 | 0.00 | 65 | 1012.2 |
| 20260503185738 | 17 | 260 | 6.4 | 25.7 | 0.00 | 0.00 | 0.00 | 66 | 1012.2 |
| 20260503185730 | 17 | 274 | 6.4 | 25.7 | 0.00 | 0.00 | 0.00 | 66 | 1012.2 |
| 20260503185637 | 17 | 310 | 6.4 | 25.7 | 0.00 | 0.00 | 0.00 | 66 | 1012.2 |
| 20260503185531 | 17 | 243 | 6.4 | 25.7 | 0.00 | 0.00 | 0.00 | 66 | 1012.2 |
| 20260503185432 | 17 | 238 | 6.4 | 25.7 | 0.00 | 0.00 | 0.00 | 66 | 1012.2 |
| 20260503185331 | 17 | 158 | 6.4 | 25.7 | 0.00 | 0.00 | 0.00 | 68 | 1012.3 |
| 20260503185236 | 17 | 195 | 8.0 | 25.7 | 0.00 | 0.00 | 0.00 | 67 | 1012.2 |
| 20260503185230 | 17 | 217 | 8.0 | 25.7 | 0.00 | 0.00 | 0.00 | 67 | 1012.2 |
| 20260503185130 | 17 | 239 | 8.0 | 25.7 | 0.00 | 0.00 | 0.00 | 67 | 1012.2 |
| 20260503185023 | 16 | 250 | 9.7 | 25.7 | 0.00 | 0.00 | 0.00 | 68 | 1012.3 |
| 20260503184925 | 16 | 198 | 9.7 | 25.7 | 0.00 | 0.00 | 0.00 | 67 | 1012.3 |
| 20260503184824 | 16 | 250 | 8.0 | 25.7 | 0.00 | 0.00 | 0.00 | 67 | 1012.4 |
| 20260503184732 | 16 | 281 | 9.7 | 20.9 | 0.00 | 0.00 | 0.00 | 67 | 1012.3 |
| 20260503184725 | 16 | 242 | 9.7 | 20.9 | 0.00 | 0.00 | 0.00 | 67 | 1012.3 |
| 20260503184623 | 16 | 221 | 9.7 | 22.5 | 0.00 | 0.00 | 0.00 | 67 | 1012.3 |
| 20260503184520 | 16 | 215 | 9.7 | 22.5 | 0.00 | 0.00 | 0.00 | 68 | 1012.3 |
| 20260503184418 | 16 | 232 | 11.3 | 22.5 | 0.00 | 0.00 | 0.00 | 68 | 1012.3 |
| 20260503184318 | 16 | 232 | 9.7 | 22.5 | 0.00 | 0.00 | 0.00 | 68 | 1012.3 |
| 20260503184231 | 16 | 218 | 9.7 | 22.5 | 0.00 | 0.00 | 0.00 | 68 | 1012.3 |
| 20260503184218 | 16 | 248 | 9.7 | 22.5 | 0.00 | 0.00 | 0.00 | 68 | 1012.3 |
| 20260503184115 | 16 | 248 | 9.7 | 22.5 | 0.00 | 0.00 | 0.00 | 67 | 1012.3 |
| 20260503184010 | 16 | 255 | 9.7 | 22.5 | 0.00 | 0.00 | 0.00 | 68 | 1012.3 |
| 20260503183949 | 16 | 281 | 11.3 | 24.1 | 0.00 | 0.00 | 0.00 | 67 | 1012.3 |
| 20260503183909 | 16 | 226 | 11.3 | 24.1 | 0.00 | 0.00 | 0.00 | 68 | 1012.3 |
| 20260503183839 | 16 | 242 | 11.3 | 24.1 | 0.00 | 0.00 | 0.00 | 67 | 1012.3 |
| 20260503183708 | 16 | 194 | 11.3 | 24.1 | 0.00 | 0.00 | 0.00 | 67 | 1012.3 |
| 20260503183607 | 16 | 236 | 11.3 | 24.1 | 0.00 | 0.00 | 0.00 | 67 | 1012.3 |
| 20260503183501 | 16 | 162 | 11.3 | 24.1 | 0.00 | 0.00 | 0.00 | 67 | 1012.2 |
| 20260503183402 | 16 | 243 | 11.3 | 24.1 | 0.00 | 0.00 | 0.00 | 68 | 1012.3 |
| 20260503183302 | 16 | 243 | 11.3 | 24.1 | 0.00 | 0.00 | 0.00 | 68 | 1012.3 |
| 20260503183229 | 16 | 232 | 9.7 | 24.1 | 0.00 | 0.00 | 0.00 | 68 | 1012.2 |
| 20260503183201 | 16 | 211 | 9.7 | 24.1 | 0.00 | 0.00 | 0.00 | 68 | 1012.2 |
| 20260503183100 | 16 | 262 | 9.7 | 24.1 | 0.00 | 0.00 | 0.00 | 69 | 1012.3 |
| 20260503182954 | 16 | 232 | 9.7 | 24.1 | 0.00 | 0.00 | 0.00 | 68 | 1012.3 |
| 20260503182853 | 16 | 188 | 9.7 | 20.9 | 0.00 | 0.00 | 0.00 | 68 | 1012.3 |
| 20260503182754 | 16 | 248 | 9.7 | 20.9 | 0.00 | 0.00 | 0.00 | 68 | 1012.3 |
| 20260503182730 | 16 | 222 | 9.7 | 20.9 | 0.00 | 0.00 | 0.00 | 68 | 1012.3 |
| 20260503182654 | 16 | 240 | 9.7 | 20.9 | 0.00 | 0.00 | 0.00 | 69 | 1012.3 |
| 20260503182553 | 16 | 241 | 9.7 | 20.9 | 0.00 | 0.00 | 0.00 | 69 | 1012.3 |
| 20260503182450 | 16 | 264 | 9.7 | 20.9 | 0.00 | 0.00 | 0.00 | 70 | 1012.3 |
| 20260503182348 | 16 | 231 | 11.3 | 20.9 | 0.00 | 0.00 | 0.00 | 70 | 1012.3 |
| 20260503182247 | 16 | 123 | 11.3 | 20.9 | 0.00 | 0.00 | 0.00 | 70 | 1012.3 |
| 20260503182229 | 16 | 126 | 11.3 | 20.9 | 0.00 | 0.00 | 0.00 | 70 | 1012.3 |
| 20260503182148 | 16 | 143 | 11.3 | 20.9 | 0.00 | 0.00 | 0.00 | 69 | 1012.3 |
| 20260503182044 | 16 | 228 | 11.3 | 24.1 | 0.00 | 0.00 | 0.00 | 69 | 1012.3 |
| 20260503181942 | 16 | 204 | 12.9 | 24.1 | 0.00 | 0.00 | 0.00 | 69 | 1012.3 |
| 20260503181842 | 16 | 216 | 12.9 | 24.1 | 0.00 | 0.00 | 0.00 | 69 | 1012.3 |
| 20260503181741 | 16 | 214 | 11.3 | 24.1 | 0.00 | 0.00 | 0.00 | 70 | 1012.3 |
| 20260503181722 | 16 | 219 | 11.3 | 24.1 | 0.00 | 0.00 | 0.00 | 70 | 1012.3 |
| 20260503181642 | 16 | 246 | 11.3 | 24.1 | 0.00 | 0.00 | 0.00 | 69 | 1012.3 |
| 20260503181541 | 16 | 222 | 11.3 | 24.1 | 0.00 | 0.00 | 0.00 | 69 | 1012.3 |
| 20260503181436 | 16 | 200 | 11.3 | 25.7 | 0.00 | 0.00 | 0.00 | 70 | 1012.3 |
| 20260503181336 | 16 | 262 | 11.3 | 25.7 | 0.00 | 0.00 | 0.00 | 70 | 1012.4 |
| 20260503181236 | 16 | 256 | 11.3 | 25.7 | 0.00 | 0.00 | 0.00 | 69 | 1012.4 |
| 20260503181216 | 16 | 273 | 11.3 | 25.7 | 0.00 | 0.00 | 0.00 | 69 | 1012.4 |
| 20260503181136 | 16 | 203 | 11.3 | 25.7 | 0.00 | 0.00 | 0.00 | 70 | 1012.3 |
| 20260503181034 | 16 | 257 | 11.3 | 25.7 | 0.00 | 0.00 | 0.00 | 69 | 1012.3 |
| 20260503180928 | 16 | 274 | 9.7 | 25.7 | 0.00 | 0.00 | 0.00 | 69 | 1012.3 |
| 20260503180827 | 16 | 236 | 9.7 | 25.7 | 0.00 | 0.00 | 0.00 | 69 | 1012.3 |
| 20260503180729 | 16 | 224 | 8.0 | 25.7 | 0.00 | 0.00 | 0.00 | 69 | 1012.4 |
| 20260503180714 | 16 | 230 | 8.0 | 25.7 | 0.00 | 0.00 | 0.00 | 69 | 1012.4 |
| 20260503180628 | 16 | 232 | 8.0 | 25.7 | 0.00 | 0.00 | 0.00 | 70 | 1012.3 |
| 20260503180528 | 16 | 211 | 8.0 | 25.7 | 0.00 | 0.00 | 0.00 | 69 | 1012.3 |
| 20260503180424 | 16 | 232 | 6.4 | 20.9 | 0.00 | 0.00 | 0.00 | 69 | 1012.3 |
| 20260503180324 | 16 | 212 | 6.4 | 20.9 | 0.00 | 0.00 | 0.00 | 70 | 1012.2 |
| 20260503180227 | 16 | 266 | 8.0 | 25.7 | 0.00 | 0.00 | 0.00 | 70 | 1012.2 |
| 20260503180216 | 16 | 273 | 8.0 | 25.7 | 0.00 | 0.00 | 0.00 | 70 | 1012.2 |
| 20260503180124 | 16 | 236 | 8.0 | 25.7 | 0.00 | 0.00 | 0.00 | 70 | 1012.3 |
| 20260503180025 | 16 | 229 | 8.0 | 25.7 | 0.00 | 0.00 | 0.00 | 71 | 1012.3 |
| 20260503175924 | 16 | 242 | 8.0 | 25.7 | 0.00 | 0.00 | 0.00 | 70 | 1012.3 |
| 20260503175822 | 16 | 218 | 8.0 | 25.7 | 0.00 | 0.00 | 0.00 | 70 | 1012.3 |
| 20260503175725 | 16 | 228 | 8.0 | 25.7 | 0.00 | 0.00 | 0.00 | 71 | 1012.4 |
| 20260503175714 | 16 | 262 | 8.0 | 25.7 | 0.00 | 0.00 | 0.00 | 71 | 1012.4 |
| 20260503175622 | 16 | 243 | 8.0 | 25.7 | 0.00 | 0.00 | 0.00 | 71 | 1012.3 |
| 20260503175522 | 16 | 212 | 8.0 | 25.7 | 0.00 | 0.00 | 0.00 | 71 | 1012.3 |
| 20260503175421 | 16 | 208 | 8.0 | 25.7 | 0.00 | 0.00 | 0.00 | 71 | 1012.3 |
| 20260503175322 | 16 | 238 | 8.0 | 25.7 | 0.00 | 0.00 | 0.00 | 70 | 1012.4 |
| 20260503175224 | 16 | 250 | 8.0 | 20.9 | 0.00 | 0.00 | 0.00 | 70 | 1012.4 |
| 20260503175214 | 16 | 218 | 8.0 | 20.9 | 0.00 | 0.00 | 0.00 | 71 | 1012.4 |
| 20260503175121 | 16 | 250 | 8.0 | 17.7 | 0.00 | 0.00 | 0.00 | 71 | 1012.4 |
| 20260503175022 | 16 | 274 | 8.0 | 17.7 | 0.00 | 0.00 | 0.00 | 71 | 1012.4 |
| 20260503174921 | 16 | 236 | 8.0 | 17.7 | 0.00 | 0.00 | 0.00 | 71 | 1012.4 |
| 20260503174821 | 16 | 239 | 8.0 | 17.7 | 0.00 | 0.00 | 0.00 | 72 | 1012.4 |
| 20260503174722 | 15 | 269 | 9.7 | 17.7 | 0.00 | 0.00 | 0.00 | 71 | 1012.4 |
| 20260503174718 | 15 | 270 | 9.7 | 17.7 | 0.00 | 0.00 | 0.00 | 71 | 1012.4 |
| 20260503174616 | 15 | 243 | 9.7 | 17.7 | 0.00 | 0.00 | 0.00 | 72 | 1012.4 |
| 20260503174516 | 15 | 221 | 9.7 | 17.7 | 0.00 | 0.00 | 0.00 | 72 | 1012.5 |
| 20260503174441 | 15 | 224 | 9.7 | 20.9 | 0.00 | 0.00 | 0.00 | 71 | 1012.5 |
| 20260503174416 | 15 | 228 | 9.7 | 17.7 | 0.00 | 0.00 | 0.00 | 72 | 1012.5 |
| 20260503174325 | 15 | 221 | 9.7 | 17.7 | 0.00 | 0.00 | 0.00 | 72 | 1012.5 |
| 20260503174207 | 15 | 221 | 9.7 | 20.9 | 0.00 | 0.00 | 0.00 | 71 | 1012.5 |
| 20260503174108 | 15 | 242 | 9.7 | 20.9 | 0.00 | 0.00 | 0.00 | 71 | 1012.4 |
| 20260503174008 | 15 | 248 | 8.0 | 20.9 | 0.00 | 0.00 | 0.00 | 71 | 1012.4 |
| 20260503173907 | 15 | 177 | 8.0 | 20.9 | 0.00 | 0.00 | 0.00 | 72 | 1012.5 |
| 20260503173807 | 15 | 195 | 8.0 | 20.9 | 0.00 | 0.00 | 0.00 | 71 | 1012.5 |
| 20260503173714 | 15 | 208 | 8.0 | 20.9 | 0.00 | 0.00 | 0.00 | 72 | 1012.5 |
| 20260503173708 | 15 | 214 | 8.0 | 20.9 | 0.00 | 0.00 | 0.00 | 72 | 1012.5 |
| 20260503173608 | 15 | 219 | 8.0 | 20.9 | 0.00 | 0.00 | 0.00 | 72 | 1012.5 |
| 20260503173507 | 15 | 229 | 8.0 | 24.1 | 0.00 | 0.00 | 0.00 | 72 | 1012.4 |
| 20260503173408 | 15 | 197 | 9.7 | 25.7 | 0.00 | 0.00 | 0.00 | 72 | 1012.4 |
| 20260503173308 | 15 | 242 | 9.7 | 29.0 | 0.00 | 0.00 | 0.00 | 73 | 1012.4 |
| 20260503173215 | 15 | 290 | 11.3 | 29.0 | 0.00 | 0.00 | 0.00 | 73 | 1012.5 |
| 20260503173208 | 15 | 238 | 11.3 | 29.0 | 0.00 | 0.00 | 0.00 | 73 | 1012.5 |
| 20260503173107 | 15 | 183 | 11.3 | 29.0 | 0.00 | 0.00 | 0.00 | 73 | 1012.5 |
| 20260503173007 | 15 | 214 | 11.3 | 29.0 | 0.00 | 0.00 | 0.00 | 73 | 1012.4 |
| 20260503172906 | 15 | 200 | 9.7 | 29.0 | 0.00 | 0.00 | 0.00 | 72 | 1012.4 |
| 20260503172804 | 15 | 245 | 9.7 | 29.0 | 0.00 | 0.00 | 0.00 | 73 | 1012.4 |
| 20260503172715 | 15 | 239 | 9.7 | 29.0 | 0.00 | 0.00 | 0.00 | 73 | 1012.4 |
| 20260503172703 | 15 | 287 | 9.7 | 29.0 | 0.00 | 0.00 | 0.00 | 73 | 1012.4 |
| 20260503172601 | 15 | 228 | 8.0 | 29.0 | 0.00 | 0.00 | 0.00 | 72 | 1012.4 |
| 20260503172502 | 15 | 281 | 8.0 | 29.0 | 0.00 | 0.00 | 0.00 | 72 | 1012.4 |
| 20260503172402 | 15 | 243 | 8.0 | 27.4 | 0.00 | 0.00 | 0.00 | 73 | 1012.4 |
| 20260503172305 | 15 | 240 | 8.0 | 20.9 | 0.00 | 0.00 | 0.00 | 73 | 1012.4 |
| 20260503172214 | 15 | 235 | 8.0 | 24.1 | 0.00 | 0.00 | 0.00 | 74 | 1012.4 |
| 20260503172202 | 15 | 236 | 8.0 | 24.1 | 0.00 | 0.00 | 0.00 | 74 | 1012.4 |
| 20260503172101 | 15 | 252 | 8.0 | 24.1 | 0.00 | 0.00 | 0.00 | 73 | 1012.4 |
| 20260503171956 | 15 | 257 | 9.7 | 24.1 | 0.00 | 0.00 | 0.00 | 74 | 1012.4 |
| 20260503171934 | 15 | 222 | 9.7 | 24.1 | 0.00 | 0.00 | 0.00 | 74 | 1012.3 |
| 20260503171856 | 15 | 217 | 9.7 | 24.1 | 0.00 | 0.00 | 0.00 | 74 | 1012.3 |
| 20260503171826 | 15 | 283 | 9.7 | 24.1 | 0.00 | 0.00 | 0.00 | 74 | 1012.3 |
| 20260503171700 | 15 | 231 | 9.7 | 22.5 | 0.00 | 0.00 | 0.00 | 73 | 1012.3 |
| 20260503171656 | 15 | 221 | 9.7 | 24.1 | 0.00 | 0.00 | 0.00 | 74 | 1012.3 |
| 20260503171557 | 15 | 273 | 9.7 | 24.1 | 0.00 | 0.00 | 0.00 | 74 | 1012.4 |
| 20260503171549 | 15 | 238 | 9.7 | 24.1 | 0.00 | 0.00 | 0.00 | 73 | 1012.4 |
| 20260503171353 | 15 | 250 | 9.7 | 24.1 | 0.00 | 0.00 | 0.00 | 73 | 1012.3 |
| 20260503171326 | 15 | 211 | 9.7 | 22.5 | 0.00 | 0.00 | 0.00 | 73 | 1012.3 |
| 20260503171153 | 15 | 230 | 9.7 | 22.5 | 0.00 | 0.00 | 0.00 | 73 | 1012.3 |
| 20260503171053 | 15 | 233 | 8.0 | 22.5 | 0.00 | 0.00 | 0.00 | 73 | 1012.3 |
| 20260503170953 | 15 | 250 | 8.0 | 17.7 | 0.00 | 0.00 | 0.00 | 74 | 1012.3 |
| 20260503170852 | 15 | 143 | 8.0 | 17.7 | 0.00 | 0.00 | 0.00 | 75 | 1012.3 |
| 20260503170752 | 15 | 219 | 8.0 | 19.3 | 0.00 | 0.00 | 0.00 | 74 | 1012.2 |
| 20260503170713 | 15 | 180 | 8.0 | 19.3 | 0.00 | 0.00 | 0.00 | 74 | 1012.2 |
| 20260503170651 | 15 | 197 | 8.0 | 19.3 | 0.00 | 0.00 | 0.00 | 75 | 1012.2 |
| 20260503170550 | 15 | 236 | 8.0 | 19.3 | 0.00 | 0.00 | 0.00 | 75 | 1012.2 |
| 20260503170449 | 15 | 224 | 8.0 | 19.3 | 0.00 | 0.00 | 0.00 | 75 | 1012.1 |
| 20260503170348 | 15 | 253 | 6.4 | 19.3 | 0.00 | 0.00 | 0.00 | 75 | 1012.2 |
| 20260503170249 | 15 | 228 | 6.4 | 19.3 | 0.00 | 0.00 | 0.00 | 75 | 1012.2 |
| 20260503170212 | 15 | 243 | 6.4 | 19.3 | 0.00 | 0.00 | 0.00 | 75 | 1012.1 |
| 20260503170149 | 15 | 161 | 6.4 | 19.3 | 0.00 | 0.00 | 0.00 | 75 | 1012.1 |
| 20260503160139 | 13 | 225 | 6.4 | 16.1 | 0.00 | 0.00 | 0.00 | 79 | 1011.6 |
| 20260503160111 | 13 | 236 | 6.4 | 16.1 | 0.00 | 0.00 | 0.00 | 79 | 1011.6 |
| 20260503150959 | 13 | 205 | 4.8 | 14.5 | 0.00 | 0.00 | 0.00 | 82 | 1011.5 |
| 20260503150941 | 13 | 208 | 6.4 | 14.5 | 0.00 | 0.00 | 0.00 | 82 | 1011.5 |
| 20260503150839 | 13 | 230 | 6.4 | 14.5 | 0.00 | 0.00 | 0.00 | 82 | 1011.4 |
| 20260503150738 | 13 | 235 | 4.8 | 14.5 | 0.00 | 0.00 | 0.00 | 82 | 1011.4 |
| 20260503150636 | 13 | 188 | 4.8 | 14.5 | 0.00 | 0.00 | 0.00 | 82 | 1011.4 |
| 20260503150535 | 13 | 245 | 4.8 | 12.9 | 0.00 | 0.00 | 0.00 | 83 | 1011.5 |
| 20260503150452 | 12 | 194 | 4.8 | 11.3 | 0.00 | 0.00 | 0.00 | 83 | 1011.5 |
| 20260503150432 | 12 | 259 | 4.8 | 11.3 | 0.00 | 0.00 | 0.00 | 83 | 1011.4 |
| 20260503150333 | 12 | 163 | 4.8 | 11.3 | 0.00 | 0.00 | 0.00 | 83 | 1011.4 |
| 20260503150232 | 12 | 257 | 6.4 | 11.3 | 0.00 | 0.00 | 0.00 | 83 | 1011.4 |
| 20260503150215 | 12 | 239 | 6.4 | 12.9 | 0.00 | 0.00 | 0.00 | 83 | 1011.3 |
| 20260503150129 | 12 | 211 | 6.4 | 11.3 | 0.00 | 0.00 | 0.00 | 83 | 1011.4 |
| 20260503140312 | 12 | 226 | 4.8 | 14.5 | 0.00 | 0.00 | 0.00 | 85 | 1010.3 |
| 20260503140112 | 12 | 248 | 4.8 | 14.5 | 0.00 | 0.00 | 0.00 | 85 | 1010.2 |
| 20260503131406 | 12 | 152 | 4.8 | 14.5 | 0.00 | 0.00 | 0.00 | 86 | 1009.9 |
| 20260503131327 | 12 | 203 | 4.8 | 14.5 | 0.00 | 0.00 | 0.00 | 86 | 1009.8 |
| 20260503131229 | 12 | 200 | 4.8 | 14.5 | 0.00 | 0.00 | 0.00 | 86 | 1009.8 |
| 20260503131128 | 12 | 236 | 4.8 | 14.5 | 0.00 | 0.00 | 0.00 | 86 | 1009.8 |
| 20260503131028 | 12 | 246 | 4.8 | 14.5 | 0.00 | 0.00 | 0.00 | 86 | 1009.8 |
| 20260503130928 | 12 | 225 | 4.8 | 12.9 | 0.00 | 0.00 | 0.00 | 86 | 1009.8 |
| 20260503130858 | 12 | 225 | 4.8 | 12.9 | 0.00 | 0.00 | 0.00 | 86 | 1009.8 |
| 20260503130826 | 12 | 193 | 4.8 | 12.9 | 0.00 | 0.00 | 0.00 | 86 | 1009.7 |
| 20260503130726 | 12 | 217 | 4.8 | 12.9 | 0.00 | 0.00 | 0.00 | 86 | 1009.7 |
| 20260503130626 | 12 | 198 | 4.8 | 12.9 | 0.00 | 0.00 | 0.00 | 86 | 1009.7 |
| 20260503130526 | 12 | 193 | 4.8 | 12.9 | 0.00 | 0.00 | 0.00 | 86 | 1009.7 |
| 20260503130424 | 12 | 191 | 4.8 | 12.9 | 0.00 | 0.00 | 0.00 | 86 | 1009.7 |
| 20260503130353 | 12 | 193 | 4.8 | 12.9 | 0.00 | 0.00 | 0.00 | 86 | 1009.7 |
| 20260503130324 | 12 | 235 | 4.8 | 12.9 | 0.00 | 0.00 | 0.00 | 86 | 1009.6 |
| 20260503130224 | 12 | 195 | 4.8 | 12.9 | 0.00 | 0.00 | 0.00 | 86 | 1009.7 |
| 20260503120132 | 12 | 225 | 3.2 | 11.3 | 0.00 | 0.00 | 0.00 | 86 | 1009.5 |
| 20260503110805 | 12 | 250 | 4.8 | 16.1 | 0.00 | 0.00 | 0.00 | 86 | 1009.5 |
| 20260503110744 | 12 | 260 | 4.8 | 12.9 | 0.00 | 0.00 | 0.00 | 86 | 1009.6 |
| 20260503110643 | 12 | 219 | 4.8 | 12.9 | 0.00 | 0.00 | 0.00 | 86 | 1009.6 |
| 20260503110544 | 12 | 214 | 4.8 | 12.9 | 0.00 | 0.00 | 0.00 | 86 | 1009.6 |
| 20260503110443 | 12 | 200 | 4.8 | 12.9 | 0.00 | 0.00 | 0.00 | 86 | 1009.6 |
| 20260503110338 | 12 | 226 | 4.8 | 12.9 | 0.00 | 0.00 | 0.00 | 86 | 1009.6 |
| 20260503110259 | 12 | 218 | 4.8 | 12.9 | 0.00 | 0.00 | 0.00 | 86 | 1009.6 |
| 20260503110238 | 12 | 259 | 4.8 | 12.9 | 0.00 | 0.00 | 0.00 | 86 | 1009.5 |
| 20260503110138 | 12 | 221 | 4.8 | 12.9 | 0.00 | 0.00 | 0.00 | 86 | 1009.6 |
| 20260503100126 | 12 | 230 | 4.8 | 11.3 | 0.00 | 0.00 | 0.00 | 87 | 1009.3 |
| 20260503090420 | 12 | 235 | 4.8 | 12.9 | 0.00 | 0.00 | 0.00 | 87 | 1009.6 |
| 20260503090320 | 12 | 250 | 3.2 | 12.9 | 0.00 | 0.00 | 0.00 | 87 | 1009.7 |
| 20260503090220 | 12 | 219 | 3.2 | 12.9 | 0.00 | 0.00 | 0.00 | 87 | 1009.6 |
| 20260503090210 | 12 | 198 | 3.2 | 12.9 | 0.00 | 0.00 | 0.00 | 87 | 1009.6 |
| 20260503090113 | 12 | 243 | 3.2 | 12.9 | 0.00 | 0.00 | 0.00 | 87 | 1009.7 |
| 20260503081623 | 12 | 232 | 1.6 | 8.0 | 0.00 | 0.00 | 0.00 | 86 | 1010.1 |
| 20260503081517 | 12 | 232 | 1.6 | 8.0 | 0.00 | 0.00 | 0.00 | 86 | 1010.2 |
| 20260503081416 | 12 | 231 | 1.6 | 8.0 | 0.00 | 0.00 | 0.00 | 86 | 1010.2 |
| 20260503081316 | 12 | 248 | 1.6 | 8.0 | 0.00 | 0.00 | 0.00 | 86 | 1010.2 |
| 20260503081215 | 12 | 231 | 1.6 | 6.4 | 0.00 | 0.00 | 0.00 | 86 | 1010.2 |
| 20260503081118 | 12 | 222 | 3.2 | 6.4 | 0.00 | 0.00 | 0.00 | 86 | 1010.2 |
| 20260503081012 | 12 | 222 | 3.2 | 6.4 | 0.00 | 0.00 | 0.00 | 86 | 1010.2 |
| 20260503080911 | 12 | 223 | 3.2 | 6.4 | 0.00 | 0.00 | 0.00 | 86 | 1010.2 |
| 20260503080834 | 12 | 217 | 3.2 | 6.4 | 0.00 | 0.00 | 0.00 | 86 | 1010.2 |
| 20260503080810 | 12 | 203 | 3.2 | 6.4 | 0.00 | 0.00 | 0.00 | 86 | 1010.2 |
| 20260503080729 | 12 | 161 | 3.2 | 6.4 | 0.00 | 0.00 | 0.00 | 86 | 1010.2 |
| 20260503080715 | 12 | 217 | 3.2 | 6.4 | 0.00 | 0.00 | 0.00 | 86 | 1010.2 |
| 20260503080503 | 12 | 243 | 3.2 | 6.4 | 0.00 | 0.00 | 0.00 | 86 | 1010.2 |
| 20260503080404 | 12 | 221 | 3.2 | 6.4 | 0.00 | 0.00 | 0.00 | 86 | 1010.2 |
| 20260503080304 | 12 | 204 | 3.2 | 6.4 | 0.00 | 0.00 | 0.00 | 86 | 1010.2 |
| 20260503080204 | 12 | 238 | 1.6 | 6.4 | 0.00 | 0.00 | 0.00 | 86 | 1010.2 |
| 20260503080116 | 12 | 226 | 1.6 | 6.4 | 0.00 | 0.00 | 0.00 | 86 | 1010.2 |
| 20260503072822 | 12 | 224 | 0.0 | 4.8 | 0.00 | 0.00 | 0.00 | 86 | 1010.3 |
| 20260503072722 | 12 | 224 | 0.0 | 4.8 | 0.00 | 0.00 | 0.00 | 86 | 1010.3 |
| 20260503072622 | 12 | 203 | 1.6 | 4.8 | 0.00 | 0.00 | 0.00 | 86 | 1010.3 |
| 20260503072523 | 12 | 203 | 1.6 | 6.4 | 0.00 | 0.00 | 0.00 | 86 | 1010.3 |
| 20260503072418 | 12 | 203 | 1.6 | 6.4 | 0.00 | 0.00 | 0.00 | 86 | 1010.3 |
| 20260503072316 | 12 | 156 | 1.6 | 9.7 | 0.00 | 0.00 | 0.00 | 85 | 1010.3 |
| 20260503072215 | 12 | 218 | 1.6 | 9.7 | 0.00 | 0.00 | 0.00 | 85 | 1010.3 |
| 20260503072116 | 12 | 224 | 1.6 | 9.7 | 0.00 | 0.00 | 0.00 | 85 | 1010.3 |
| 20260503072017 | 12 | 239 | 1.6 | 9.7 | 0.00 | 0.00 | 0.00 | 85 | 1010.3 |
| 20260503071912 | 12 | 239 | 3.2 | 9.7 | 0.00 | 0.00 | 0.00 | 85 | 1010.4 |
| 20260503071810 | 12 | 239 | 3.2 | 9.7 | 0.00 | 0.00 | 0.00 | 85 | 1010.3 |
| 20260503071734 | 12 | 225 | 3.2 | 9.7 | 0.00 | 0.00 | 0.00 | 85 | 1010.4 |
| 20260503071709 | 12 | 239 | 3.2 | 9.7 | 0.00 | 0.00 | 0.00 | 85 | 1010.4 |
| 20260503071626 | 12 | 150 | 3.2 | 9.7 | 0.00 | 0.00 | 0.00 | 85 | 1010.4 |
| 20260503071616 | 12 | 225 | 3.2 | 9.7 | 0.00 | 0.00 | 0.00 | 85 | 1010.4 |
| 20260503071407 | 12 | 246 | 3.2 | 9.7 | 0.00 | 0.00 | 0.00 | 85 | 1010.3 |
| 20260503071308 | 12 | 229 | 3.2 | 9.7 | 0.00 | 0.00 | 0.00 | 85 | 1010.4 |
| 20260503071208 | 12 | 193 | 3.2 | 9.7 | 0.00 | 0.00 | 0.00 | 85 | 1010.4 |
| 20260503071106 | 12 | 233 | 3.2 | 9.7 | 0.00 | 0.00 | 0.00 | 85 | 1010.4 |
| 20260503071011 | 12 | 240 | 3.2 | 8.0 | 0.00 | 0.00 | 0.00 | 85 | 1010.4 |
| 20260503071001 | 12 | 238 | 3.2 | 8.0 | 0.00 | 0.00 | 0.00 | 85 | 1010.4 |
| 20260503070906 | 12 | 230 | 3.2 | 6.4 | 0.00 | 0.00 | 0.00 | 85 | 1010.4 |
| 20260503070804 | 12 | 212 | 3.2 | 6.4 | 0.00 | 0.00 | 0.00 | 85 | 1010.5 |
| 20260503070739 | 12 | 217 | 3.2 | 6.4 | 0.00 | 0.00 | 0.00 | 85 | 1010.6 |
| 20260503070704 | 12 | 234 | 3.2 | 6.4 | 0.00 | 0.00 | 0.00 | 85 | 1010.5 |
| 20260503070618 | 12 | 235 | 3.2 | 6.4 | 0.00 | 0.00 | 0.00 | 85 | 1010.5 |
| 20260503070501 | 12 | 217 | 3.2 | 6.4 | 0.00 | 0.00 | 0.00 | 85 | 1010.6 |
| 20260503070402 | 12 | 238 | 1.6 | 6.4 | 0.00 | 0.00 | 0.00 | 85 | 1010.5 |
| 20260503070300 | 12 | 232 | 1.6 | 6.4 | 0.00 | 0.00 | 0.00 | 85 | 1010.5 |
| 20260503070200 | 12 | 215 | 1.6 | 6.4 | 0.00 | 0.00 | 0.00 | 85 | 1010.6 |
| 20260503060328 | 13 | 239 | 1.6 | 8.0 | 0.00 | 0.00 | 0.00 | 84 | 1010.6 |
| 20260503060229 | 13 | 207 | 1.6 | 9.7 | 0.00 | 0.00 | 0.00 | 84 | 1010.5 |
| 20260503060128 | 13 | 225 | 1.6 | 9.7 | 0.00 | 0.00 | 0.00 | 84 | 1010.6 |
| 20260503055124 | 13 | 243 | 3.2 | 12.9 | 0.00 | 0.00 | 0.00 | 83 | 1010.7 |
| 20260503055109 | 13 | 239 | 3.2 | 12.9 | 0.00 | 0.00 | 0.00 | 83 | 1010.6 |
| 20260503054916 | 13 | 221 | 3.2 | 12.9 | 0.00 | 0.00 | 0.00 | 83 | 1010.6 |
| 20260503054816 | 13 | 218 | 4.8 | 12.9 | 0.00 | 0.00 | 0.00 | 83 | 1010.6 |
| 20260503054720 | 13 | 252 | 3.2 | 9.7 | 0.00 | 0.00 | 0.00 | 83 | 1010.6 |
| 20260503054712 | 13 | 231 | 4.8 | 12.9 | 0.00 | 0.00 | 0.00 | 83 | 1010.6 |
| 20260503054609 | 13 | 284 | 4.8 | 12.9 | 0.00 | 0.00 | 0.00 | 83 | 1010.6 |
| 20260503054601 | 13 | 210 | 3.2 | 12.9 | 0.00 | 0.00 | 0.00 | 83 | 1010.6 |
| 20260503054410 | 13 | 212 | 4.8 | 12.9 | 0.00 | 0.00 | 0.00 | 83 | 1010.6 |
| 20260503054310 | 13 | 259 | 4.8 | 12.9 | 0.00 | 0.00 | 0.00 | 83 | 1010.6 |
| 20260503054212 | 13 | 263 | 4.8 | 12.9 | 0.00 | 0.00 | 0.00 | 83 | 1010.7 |
| 20260503054204 | 13 | 257 | 4.8 | 12.9 | 0.00 | 0.00 | 0.00 | 83 | 1010.6 |
| 20260503054108 | 13 | 233 | 4.8 | 12.9 | 0.00 | 0.00 | 0.00 | 83 | 1010.6 |
| 20260503054056 | 13 | 217 | 4.8 | 12.9 | 0.00 | 0.00 | 0.00 | 83 | 1010.7 |
| 20260503053904 | 13 | 98 | 4.8 | 12.9 | 0.00 | 0.00 | 0.00 | 83 | 1010.7 |
| 20260503053804 | 13 | 158 | 6.4 | 12.9 | 0.00 | 0.00 | 0.00 | 83 | 1010.7 |
| 20260503053702 | 13 | 170 | 6.4 | 12.9 | 0.00 | 0.00 | 0.00 | 83 | 1010.6 |
| 20260503053602 | 13 | 250 | 6.4 | 12.9 | 0.00 | 0.00 | 0.00 | 83 | 1010.6 |
| 20260503053503 | 13 | 257 | 6.4 | 12.9 | 0.00 | 0.00 | 0.00 | 83 | 1010.6 |
| 20260503053439 | 13 | 248 | 4.8 | 12.9 | 0.00 | 0.00 | 0.00 | 83 | 1010.6 |
| 20260503053401 | 13 | 232 | 4.8 | 12.9 | 0.00 | 0.00 | 0.00 | 83 | 1010.6 |
| 20260503053258 | 13 | 208 | 4.8 | 12.9 | 0.00 | 0.00 | 0.00 | 83 | 1010.6 |
| 20260503053153 | 13 | 273 | 4.8 | 12.9 | 0.00 | 0.00 | 0.00 | 83 | 1010.6 |
| 20260503053132 | 13 | 217 | 3.2 | 16.1 | 0.00 | 0.00 | 0.00 | 83 | 1010.6 |
| 20260503053054 | 13 | 236 | 4.8 | 12.9 | 0.00 | 0.00 | 0.00 | 83 | 1010.6 |
| 20260503053031 | 13 | 232 | 3.2 | 12.9 | 0.00 | 0.00 | 0.00 | 83 | 1010.6 |
| 20260503053020 | 13 | 238 | 3.2 | 12.9 | 0.00 | 0.00 | 0.00 | 83 | 1010.5 |
| 20260503052855 | 13 | 243 | 3.2 | 12.9 | 0.00 | 0.00 | 0.00 | 82 | 1010.5 |
| 20260503052800 | 13 | 240 | 3.2 | 12.9 | 0.00 | 0.00 | 0.00 | 83 | 1010.6 |
| 20260503052646 | 13 | 226 | 3.2 | 16.1 | 0.00 | 0.00 | 0.00 | 83 | 1010.6 |
| 20260503052546 | 13 | 212 | 3.2 | 16.1 | 0.00 | 0.00 | 0.00 | 83 | 1010.7 |
| 20260503052537 | 13 | 217 | 3.2 | 16.1 | 0.00 | 0.00 | 0.00 | 83 | 1010.6 |
| 20260503052346 | 13 | 215 | 3.2 | 16.1 | 0.00 | 0.00 | 0.00 | 83 | 1010.6 |
| 20260503052246 | 13 | 215 | 3.2 | 16.1 | 0.00 | 0.00 | 0.00 | 82 | 1010.6 |
| 20260503052142 | 13 | 233 | 3.2 | 16.1 | 0.00 | 0.00 | 0.00 | 82 | 1010.5 |
| 20260503052040 | 13 | 231 | 3.2 | 16.1 | 0.00 | 0.00 | 0.00 | 82 | 1010.6 |
| 20260503051940 | 13 | 270 | 3.2 | 16.1 | 0.00 | 0.00 | 0.00 | 82 | 1010.6 |
| 20260503051921 | 13 | 271 | 3.2 | 16.1 | 0.00 | 0.00 | 0.00 | 82 | 1010.6 |
| 20260503051840 | 13 | 269 | 3.2 | 16.1 | 0.00 | 0.00 | 0.00 | 82 | 1010.6 |
| 20260503051741 | 13 | 271 | 3.2 | 16.1 | 0.00 | 0.00 | 0.00 | 82 | 1010.6 |
| 20260503051634 | 13 | 266 | 3.2 | 14.5 | 0.00 | 0.00 | 0.00 | 82 | 1010.6 |
| 20260503051535 | 13 | 217 | 3.2 | 14.5 | 0.00 | 0.00 | 0.00 | 82 | 1010.6 |
| 20260503051434 | 13 | 270 | 3.2 | 14.5 | 0.00 | 0.00 | 0.00 | 82 | 1010.6 |
| 20260503051413 | 13 | 228 | 3.2 | 14.5 | 0.00 | 0.00 | 0.00 | 82 | 1010.6 |
| 20260503051334 | 13 | 252 | 3.2 | 12.9 | 0.00 | 0.00 | 0.00 | 82 | 1010.6 |
| 20260503051234 | 13 | 248 | 3.2 | 12.9 | 0.00 | 0.00 | 0.00 | 82 | 1010.6 |
| 20260503051132 | 13 | 200 | 3.2 | 12.9 | 0.00 | 0.00 | 0.00 | 82 | 1010.6 |
| 20260503051035 | 13 | 239 | 3.2 | 12.9 | 0.00 | 0.00 | 0.00 | 82 | 1010.6 |
| 20260503050932 | 13 | 226 | 4.8 | 12.9 | 0.00 | 0.00 | 0.00 | 81 | 1010.6 |
| 20260503050909 | 13 | 219 | 4.8 | 12.9 | 0.00 | 0.00 | 0.00 | 81 | 1010.6 |
| 20260503050829 | 13 | 238 | 4.8 | 12.9 | 0.00 | 0.00 | 0.00 | 81 | 1010.6 |
| 20260503050729 | 13 | 212 | 4.8 | 12.9 | 0.00 | 0.00 | 0.00 | 81 | 1010.6 |
| 20260503050622 | 13 | 219 | 4.8 | 12.9 | 0.00 | 0.00 | 0.00 | 81 | 1010.5 |
| 20260503050522 | 13 | 239 | 3.2 | 12.9 | 0.00 | 0.00 | 0.00 | 81 | 1010.5 |
| 20260503050422 | 13 | 242 | 4.8 | 12.9 | 0.00 | 0.00 | 0.00 | 81 | 1010.5 |
| 20260503050403 | 13 | 236 | 4.8 | 12.9 | 0.00 | 0.00 | 0.00 | 81 | 1010.5 |
| 20260503050322 | 13 | 229 | 4.8 | 12.9 | 0.00 | 0.00 | 0.00 | 81 | 1010.5 |
| 20260503050222 | 13 | 239 | 3.2 | 12.9 | 0.00 | 0.00 | 0.00 | 81 | 1010.5 |
| 20260503050116 | 13 | 296 | 3.2 | 12.9 | 0.00 | 0.00 | 0.00 | 81 | 1010.6 |
| 20260503050016 | 13 | 236 | 4.8 | 12.9 | 0.00 | 0.00 | 0.00 | 81 | 1010.6 |
| 20260503045916 | 13 | 248 | 3.2 | 12.9 | 0.00 | 0.00 | 0.00 | 81 | 1010.5 |
| 20260503045856 | 13 | 192 | 3.2 | 12.9 | 0.00 | 0.00 | 0.00 | 81 | 1010.5 |
| 20260503045816 | 13 | 221 | 3.2 | 12.9 | 0.00 | 0.00 | 0.00 | 81 | 1010.5 |
| 20260503045715 | 13 | 233 | 3.2 | 12.9 | 0.00 | 0.00 | 0.00 | 81 | 1010.5 |
| 20260503045618 | 13 | 218 | 3.2 | 12.9 | 0.00 | 0.00 | 0.00 | 81 | 1010.4 |
| 20260503045611 | 13 | 211 | 3.2 | 12.9 | 0.00 | 0.00 | 0.00 | 81 | 1010.4 |
| 20260503045510 | 13 | 243 | 3.2 | 12.9 | 0.00 | 0.00 | 0.00 | 81 | 1010.4 |
| 20260503045502 | 13 | 248 | 3.2 | 12.9 | 0.00 | 0.00 | 0.00 | 81 | 1010.4 |
| 20260503045311 | 13 | 273 | 3.2 | 12.9 | 0.00 | 0.00 | 0.00 | 81 | 1010.4 |
| 20260503045210 | 13 | 212 | 3.2 | 12.9 | 0.00 | 0.00 | 0.00 | 81 | 1010.4 |
| 20260503045107 | 13 | 248 | 3.2 | 12.9 | 0.00 | 0.00 | 0.00 | 80 | 1010.3 |
| 20260503045006 | 13 | 238 | 4.8 | 20.9 | 0.00 | 0.00 | 0.00 | 80 | 1010.3 |
| 20260503044906 | 13 | 233 | 3.2 | 20.9 | 0.00 | 0.00 | 0.00 | 81 | 1010.4 |
| 20260503044850 | 13 | 236 | 3.2 | 20.9 | 0.00 | 0.00 | 0.00 | 80 | 1010.4 |
| 20260503044836 | 13 | 235 | 4.8 | 20.9 | 0.00 | 0.00 | 0.00 | 80 | 1010.2 |
| 20260503044806 | 13 | 236 | 4.8 | 20.9 | 0.00 | 0.00 | 0.00 | 80 | 1010.3 |
| 20260503044725 | 13 | 235 | 4.8 | 20.9 | 0.00 | 0.00 | 0.00 | 80 | 1010.3 |
| 20260503044600 | 13 | 232 | 4.8 | 20.9 | 0.00 | 0.00 | 0.00 | 80 | 1010.3 |
| 20260503044509 | 13 | 201 | 4.8 | 20.9 | 0.00 | 0.00 | 0.00 | 80 | 1010.3 |
| 20260503044500 | 13 | 239 | 4.8 | 20.9 | 0.00 | 0.00 | 0.00 | 80 | 1010.2 |
| 20260503044258 | 13 | 288 | 6.4 | 20.9 | 0.00 | 0.00 | 0.00 | 80 | 1010.3 |
| 20260503044158 | 13 | 231 | 6.4 | 20.9 | 0.00 | 0.00 | 0.00 | 80 | 1010.2 |
| 20260503044052 | 13 | 217 | 6.4 | 20.9 | 0.00 | 0.00 | 0.00 | 80 | 1010.2 |
| 20260503043952 | 13 | 225 | 4.8 | 17.7 | 0.00 | 0.00 | 0.00 | 80 | 1010.3 |
| 20260503043856 | 13 | 248 | 4.8 | 17.7 | 0.00 | 0.00 | 0.00 | 80 | 1010.2 |
| 20260503043753 | 13 | 245 | 4.8 | 17.7 | 0.00 | 0.00 | 0.00 | 79 | 1010.2 |
| 20260503043652 | 14 | 252 | 4.8 | 17.7 | 0.00 | 0.00 | 0.00 | 79 | 1010.2 |
| 20260503043546 | 14 | 222 | 4.8 | 17.7 | 0.00 | 0.00 | 0.00 | 79 | 1010.2 |
| 20260503043446 | 14 | 248 | 4.8 | 16.1 | 0.00 | 0.00 | 0.00 | 79 | 1010.2 |
| 20260503043352 | 14 | 253 | 4.8 | 16.1 | 0.00 | 0.00 | 0.00 | 79 | 1010.2 |
| 20260503043346 | 14 | 255 | 4.8 | 16.1 | 0.00 | 0.00 | 0.00 | 79 | 1010.2 |
| 20260503043246 | 14 | 197 | 4.8 | 14.5 | 0.00 | 0.00 | 0.00 | 79 | 1010.2 |
| 20260503043146 | 14 | 255 | 6.4 | 19.3 | 0.00 | 0.00 | 0.00 | 79 | 1010.2 |
| 20260503043121 | 14 | 253 | 6.4 | 19.3 | 0.00 | 0.00 | 0.00 | 79 | 1010.2 |
| 20260503043044 | 14 | 224 | 6.4 | 19.3 | 0.00 | 0.00 | 0.00 | 79 | 1010.2 |
| 20260503043002 | 14 | 241 | 6.4 | 19.3 | 0.00 | 0.00 | 0.00 | 79 | 1010.2 |
| 20260503042845 | 14 | 250 | 6.4 | 19.3 | 0.00 | 0.00 | 0.00 | 79 | 1010.2 |
| 20260503042742 | 14 | 243 | 6.4 | 19.3 | 0.00 | 0.00 | 0.00 | 79 | 1010.1 |
| 20260503042642 | 14 | 215 | 6.4 | 19.3 | 0.00 | 0.00 | 0.00 | 79 | 1010.1 |
| 20260503042542 | 14 | 231 | 8.0 | 19.3 | 0.00 | 0.00 | 0.00 | 79 | 1010.1 |
| 20260503042442 | 14 | 240 | 8.0 | 19.3 | 0.00 | 0.00 | 0.00 | 79 | 1010.1 |
| 20260503042350 | 14 | 239 | 8.0 | 19.3 | 0.00 | 0.00 | 0.00 | 79 | 1010.1 |
| 20260503042343 | 14 | 243 | 8.0 | 19.3 | 0.00 | 0.00 | 0.00 | 79 | 1010.2 |
| 20260503042242 | 14 | 271 | 8.0 | 19.3 | 0.00 | 0.00 | 0.00 | 79 | 1010.2 |
| 20260503042142 | 14 | 233 | 8.0 | 19.3 | 0.00 | 0.00 | 0.00 | 79 | 1010.1 |
| 20260503042042 | 14 | 238 | 8.0 | 19.3 | 0.00 | 0.00 | 0.00 | 78 | 1010.1 |
| 20260503041943 | 14 | 238 | 8.0 | 19.3 | 0.00 | 0.00 | 0.00 | 78 | 1010.1 |
| 20260503041847 | 14 | 215 | 8.0 | 19.3 | 0.00 | 0.00 | 0.00 | 78 | 1010.1 |
| 20260503041842 | 14 | 266 | 8.0 | 19.3 | 0.00 | 0.00 | 0.00 | 78 | 1010.1 |
| 20260503041742 | 14 | 239 | 8.0 | 19.3 | 0.00 | 0.00 | 0.00 | 78 | 1010.1 |
| 20260503041642 | 14 | 239 | 6.4 | 19.3 | 0.00 | 0.00 | 0.00 | 78 | 1010.1 |
| 20260503041542 | 14 | 224 | 6.4 | 19.3 | 0.00 | 0.00 | 0.00 | 78 | 1010.1 |
| 20260503041442 | 14 | 251 | 6.4 | 16.1 | 0.00 | 0.00 | 0.00 | 78 | 1010.1 |
| 20260503041348 | 14 | 146 | 6.4 | 12.9 | 0.00 | 0.00 | 0.00 | 78 | 1010.1 |
| 20260503041335 | 14 | 236 | 6.4 | 12.9 | 0.00 | 0.00 | 0.00 | 78 | 1010.1 |
| 20260503041236 | 14 | 221 | 4.8 | 12.9 | 0.00 | 0.00 | 0.00 | 78 | 1010.1 |
| 20260503041136 | 14 | 235 | 4.8 | 12.9 | 0.00 | 0.00 | 0.00 | 78 | 1010.1 |
| 20260503041036 | 14 | 248 | 4.8 | 12.9 | 0.00 | 0.00 | 0.00 | 78 | 1010.1 |
| 20260503040937 | 14 | 207 | 4.8 | 12.9 | 0.00 | 0.00 | 0.00 | 78 | 1010.1 |
| 20260503040850 | 14 | 248 | 4.8 | 12.9 | 0.00 | 0.00 | 0.00 | 78 | 1010.1 |
| 20260503040836 | 14 | 264 | 4.8 | 12.9 | 0.00 | 0.00 | 0.00 | 78 | 1010.1 |
| 20260503040736 | 14 | 225 | 4.8 | 12.9 | 0.00 | 0.00 | 0.00 | 78 | 1010.1 |
| 20260503040636 | 14 | 230 | 4.8 | 12.9 | 0.00 | 0.00 | 0.00 | 78 | 1010.1 |
| 20260503040537 | 15 | 218 | 4.8 | 12.9 | 0.00 | 0.00 | 0.00 | 78 | 1010.0 |
| 20260503040436 | 15 | 237 | 4.8 | 14.5 | 0.00 | 0.00 | 0.00 | 78 | 1010.0 |
| 20260503040349 | 15 | 229 | 4.8 | 16.1 | 0.00 | 0.00 | 0.00 | 78 | 1010.0 |
| 20260503040336 | 15 | 225 | 4.8 | 16.1 | 0.00 | 0.00 | 0.00 | 78 | 1010.0 |
| 20260503040236 | 15 | 240 | 4.8 | 16.1 | 0.00 | 0.00 | 0.00 | 78 | 1010.0 |
| 20260503040136 | 15 | 259 | 6.4 | 16.1 | 0.00 | 0.00 | 0.00 | 78 | 1010.0 |
| 20260503040035 | 15 | 270 | 6.4 | 16.1 | 0.00 | 0.00 | 0.00 | 78 | 1010.0 |
| 20260503035936 | 15 | 243 | 6.4 | 16.1 | 0.00 | 0.00 | 0.00 | 77 | 1010.0 |
| 20260503035847 | 15 | 252 | 6.4 | 16.1 | 0.00 | 0.00 | 0.00 | 77 | 1010.0 |
| 20260503035836 | 15 | 248 | 6.4 | 16.1 | 0.00 | 0.00 | 0.00 | 77 | 1010.0 |
| 20260503035736 | 15 | 236 | 6.4 | 16.1 | 0.00 | 0.00 | 0.00 | 77 | 1010.0 |
| 20260503035632 | 15 | 240 | 4.8 | 16.1 | 0.00 | 0.00 | 0.00 | 77 | 1010.0 |
| 20260503035533 | 15 | 236 | 4.8 | 16.1 | 0.00 | 0.00 | 0.00 | 77 | 1009.9 |
| 20260503035432 | 15 | 256 | 3.2 | 16.1 | 0.00 | 0.00 | 0.00 | 77 | 1009.9 |
| 20260503035350 | 15 | 243 | 3.2 | 14.5 | 0.00 | 0.00 | 0.00 | 77 | 1009.9 |
| 20260503035332 | 15 | 256 | 3.2 | 14.5 | 0.00 | 0.00 | 0.00 | 77 | 1009.9 |
| 20260503035232 | 15 | 212 | 3.2 | 12.9 | 0.00 | 0.00 | 0.00 | 77 | 1009.9 |
| 20260503035132 | 15 | 249 | 3.2 | 12.9 | 0.00 | 0.00 | 0.00 | 77 | 1009.8 |
| 20260503035032 | 15 | 204 | 3.2 | 12.9 | 0.00 | 0.00 | 0.00 | 77 | 1009.8 |
| 20260503034932 | 15 | 228 | 3.2 | 9.7 | 0.00 | 0.00 | 0.00 | 77 | 1009.9 |
| 20260503034847 | 15 | 240 | 3.2 | 12.9 | 0.00 | 0.00 | 0.00 | 77 | 1009.9 |
| 20260503034832 | 15 | 236 | 3.2 | 12.9 | 0.00 | 0.00 | 0.00 | 77 | 1009.9 |
| 20260503034732 | 15 | 221 | 3.2 | 19.3 | 0.00 | 0.00 | 0.00 | 77 | 1009.9 |
| 20260503034630 | 15 | 255 | 4.8 | 19.3 | 0.00 | 0.00 | 0.00 | 77 | 1009.9 |
| 20260503034528 | 15 | 217 | 4.8 | 19.3 | 0.00 | 0.00 | 0.00 | 77 | 1009.8 |
| 20260503034428 | 15 | 259 | 4.8 | 19.3 | 0.00 | 0.00 | 0.00 | 77 | 1009.9 |
| 20260503034350 | 15 | 259 | 4.8 | 19.3 | 0.00 | 0.00 | 0.00 | 77 | 1009.9 |
| 20260503034326 | 15 | 266 | 6.4 | 19.3 | 0.00 | 0.00 | 0.00 | 77 | 1009.9 |
| 20260503034225 | 15 | 242 | 6.4 | 19.3 | 0.00 | 0.00 | 0.00 | 77 | 1009.8 |
| 20260503034124 | 15 | 217 | 6.4 | 19.3 | 0.00 | 0.00 | 0.00 | 77 | 1009.8 |
| 20260503034029 | 15 | 228 | 6.4 | 19.3 | 0.00 | 0.00 | 0.00 | 77 | 1009.8 |
| 20260503033924 | 15 | 257 | 6.4 | 19.3 | 0.00 | 0.00 | 0.00 | 77 | 1009.8 |
| 20260503033848 | 15 | 231 | 6.4 | 19.3 | 0.00 | 0.00 | 0.00 | 77 | 1009.9 |
| 20260503033825 | 15 | 239 | 6.4 | 14.5 | 0.00 | 0.00 | 0.00 | 77 | 1009.9 |
| 20260503033725 | 15 | 236 | 6.4 | 14.5 | 0.00 | 0.00 | 0.00 | 77 | 1009.8 |
| 20260503033624 | 15 | 245 | 6.4 | 16.1 | 0.00 | 0.00 | 0.00 | 77 | 1009.8 |
| 20260503033525 | 15 | 248 | 6.4 | 16.1 | 0.00 | 0.00 | 0.00 | 77 | 1009.8 |
| 20260503033424 | 15 | 242 | 6.4 | 16.1 | 0.00 | 0.00 | 0.00 | 77 | 1009.8 |
| 20260503033343 | 15 | 228 | 6.4 | 16.1 | 0.00 | 0.00 | 0.00 | 77 | 1009.8 |
| 20260503033324 | 15 | 228 | 4.8 | 16.1 | 0.00 | 0.00 | 0.00 | 77 | 1009.8 |
| 20260503033224 | 15 | 214 | 4.8 | 16.1 | 0.00 | 0.00 | 0.00 | 77 | 1009.8 |
| 20260503033124 | 15 | 225 | 6.4 | 16.1 | 0.00 | 0.00 | 0.00 | 77 | 1009.7 |
| 20260503033028 | 15 | 248 | 4.8 | 16.1 | 0.00 | 0.00 | 0.00 | 76 | 1009.7 |
| 20260503032928 | 15 | 242 | 4.8 | 16.1 | 0.00 | 0.00 | 0.00 | 76 | 1009.7 |
| 20260503032856 | 15 | 245 | 4.8 | 16.1 | 0.00 | 0.00 | 0.00 | 76 | 1009.7 |
| 20260503032824 | 15 | 246 | 4.8 | 16.1 | 0.00 | 0.00 | 0.00 | 76 | 1009.7 |
| 20260503032724 | 15 | 236 | 4.8 | 16.1 | 0.00 | 0.00 | 0.00 | 76 | 1009.8 |
| 20260503032624 | 15 | 230 | 3.2 | 16.1 | 0.00 | 0.00 | 0.00 | 76 | 1009.8 |
| 20260503032524 | 15 | 262 | 3.2 | 16.1 | 0.00 | 0.00 | 0.00 | 76 | 1009.8 |
| 20260503032422 | 15 | 263 | 3.2 | 16.1 | 0.00 | 0.00 | 0.00 | 76 | 1009.8 |
| 20260503032343 | 15 | 229 | 3.2 | 16.1 | 0.00 | 0.00 | 0.00 | 76 | 1009.7 |
| 20260503032320 | 15 | 285 | 4.8 | 16.1 | 0.00 | 0.00 | 0.00 | 75 | 1009.7 |
| 20260503032220 | 15 | 243 | 3.2 | 11.3 | 0.00 | 0.00 | 0.00 | 75 | 1009.7 |
| 20260503032120 | 15 | 253 | 3.2 | 9.7 | 0.00 | 0.00 | 0.00 | 75 | 1009.7 |
| 20260503032030 | 15 | 236 | 4.8 | 9.7 | 0.00 | 0.00 | 0.00 | 75 | 1009.7 |
| 20260503031920 | 15 | 235 | 4.8 | 12.9 | 0.00 | 0.00 | 0.00 | 75 | 1009.7 |
| 20260503031844 | 15 | 238 | 4.8 | 12.9 | 0.00 | 0.00 | 0.00 | 75 | 1009.7 |
| 20260503031820 | 15 | 225 | 4.8 | 12.9 | 0.00 | 0.00 | 0.00 | 75 | 1009.7 |
| 20260503031724 | 15 | 245 | 4.8 | 12.9 | 0.00 | 0.00 | 0.00 | 75 | 1009.7 |
| 20260503031614 | 16 | 235 | 4.8 | 12.9 | 0.00 | 0.00 | 0.00 | 75 | 1009.8 |
| 20260503031514 | 16 | 238 | 4.8 | 12.9 | 0.00 | 0.00 | 0.00 | 75 | 1009.8 |
| 20260503031414 | 16 | 240 | 4.8 | 12.9 | 0.00 | 0.00 | 0.00 | 75 | 1009.7 |
| 20260503031343 | 16 | 229 | 4.8 | 12.9 | 0.00 | 0.00 | 0.00 | 75 | 1009.7 |
| 20260503031315 | 16 | 238 | 4.8 | 12.9 | 0.00 | 0.00 | 0.00 | 74 | 1009.7 |
| 20260503031204 | 16 | 233 | 4.8 | 12.9 | 0.00 | 0.00 | 0.00 | 74 | 1009.7 |
| 20260503031104 | 16 | 214 | 4.8 | 12.9 | 0.00 | 0.00 | 0.00 | 74 | 1009.7 |
| 20260503031004 | 16 | 226 | 4.8 | 12.9 | 0.00 | 0.00 | 0.00 | 75 | 1009.7 |
| 20260503030844 | 16 | 224 | 4.8 | 11.3 | 0.00 | 0.00 | 0.00 | 74 | 1009.7 |
| 20260503030802 | 16 | 271 | 3.2 | 11.3 | 0.00 | 0.00 | 0.00 | 74 | 1009.7 |
| 20260503030658 | 16 | 219 | 3.2 | 11.3 | 0.00 | 0.00 | 0.00 | 74 | 1009.7 |
| 20260503030559 | 16 | 259 | 3.2 | 11.3 | 0.00 | 0.00 | 0.00 | 74 | 1009.7 |
| 20260503030459 | 16 | 267 | 3.2 | 11.3 | 0.00 | 0.00 | 0.00 | 74 | 1009.6 |
| 20260503030405 | 16 | 225 | 3.2 | 11.3 | 0.00 | 0.00 | 0.00 | 74 | 1009.7 |
| 20260503030355 | 16 | 222 | 3.2 | 14.5 | 0.00 | 0.00 | 0.00 | 74 | 1009.6 |
| 20260503030256 | 16 | 253 | 3.2 | 14.5 | 0.00 | 0.00 | 0.00 | 74 | 1009.6 |
| 20260503030152 | 16 | 256 | 3.2 | 14.5 | 0.00 | 0.00 | 0.00 | 74 | 1009.7 |
| 20260503030052 | 16 | 238 | 3.2 | 14.5 | 0.00 | 0.00 | 0.00 | 74 | 1009.6 |
| 20260503025952 | 16 | 229 | 3.2 | 14.5 | 0.00 | 0.00 | 0.00 | 74 | 1009.6 |
| 20260503025856 | 16 | 228 | 3.2 | 14.5 | 0.00 | 0.00 | 0.00 | 74 | 1009.6 |
| 20260503025845 | 16 | 229 | 3.2 | 14.5 | 0.00 | 0.00 | 0.00 | 74 | 1009.6 |
| 20260503025750 | 16 | 228 | 3.2 | 14.5 | 0.00 | 0.00 | 0.00 | 74 | 1009.6 |
| 20260503025650 | 16 | 245 | 3.2 | 14.5 | 0.00 | 0.00 | 0.00 | 73 | 1009.6 |
| 20260503025548 | 16 | 218 | 4.8 | 14.5 | 0.00 | 0.00 | 0.00 | 73 | 1009.6 |
| 20260503025448 | 16 | 224 | 4.8 | 14.5 | 0.00 | 0.00 | 0.00 | 73 | 1009.5 |
| 20260503025353 | 16 | 257 | 4.8 | 14.5 | 0.00 | 0.00 | 0.00 | 73 | 1009.5 |
| 20260503025342 | 16 | 240 | 4.8 | 14.5 | 0.00 | 0.00 | 0.00 | 73 | 1009.5 |
| 20260503025248 | 16 | 257 | 4.8 | 17.7 | 0.00 | 0.00 | 0.00 | 73 | 1009.5 |
| 20260503025146 | 16 | 256 | 4.8 | 17.7 | 0.00 | 0.00 | 0.00 | 73 | 1009.5 |
| 20260503025046 | 16 | 200 | 4.8 | 17.7 | 0.00 | 0.00 | 0.00 | 73 | 1009.5 |
| 20260503024946 | 16 | 249 | 3.2 | 17.7 | 0.00 | 0.00 | 0.00 | 73 | 1009.5 |
| 20260503024850 | 16 | 217 | 3.2 | 17.7 | 0.00 | 0.00 | 0.00 | 73 | 1009.5 |
| 20260503024840 | 16 | 207 | 3.2 | 17.7 | 0.00 | 0.00 | 0.00 | 73 | 1009.5 |
| 20260503024744 | 16 | 257 | 3.2 | 17.7 | 0.00 | 0.00 | 0.00 | 73 | 1009.5 |
| 20260503024644 | 16 | 218 | 3.2 | 17.7 | 0.00 | 0.00 | 0.00 | 73 | 1009.5 |
| 20260503024544 | 16 | 253 | 3.2 | 17.7 | 0.00 | 0.00 | 0.00 | 73 | 1009.5 |
| 20260503024444 | 16 | 236 | 3.2 | 17.7 | 0.00 | 0.00 | 0.00 | 72 | 1009.6 |
| 20260503024341 | 16 | 176 | 1.6 | 17.7 | 0.00 | 0.00 | 0.00 | 73 | 1009.5 |
| 20260503024244 | 16 | 233 | 1.6 | 9.7 | 0.00 | 0.00 | 0.00 | 73 | 1009.5 |
| 20260503024144 | 16 | 245 | 1.6 | 9.7 | 0.00 | 0.00 | 0.00 | 73 | 1009.5 |
| 20260503024044 | 16 | 239 | 1.6 | 11.3 | 0.00 | 0.00 | 0.00 | 73 | 1009.5 |
| 20260503023942 | 17 | 239 | 3.2 | 11.3 | 0.00 | 0.00 | 0.00 | 73 | 1009.5 |
| 20260503023845 | 17 | 239 | 3.2 | 11.3 | 0.00 | 0.00 | 0.00 | 73 | 1009.5 |
| 20260503023739 | 17 | 239 | 3.2 | 11.3 | 0.00 | 0.00 | 0.00 | 72 | 1009.4 |
| 20260503023640 | 17 | 239 | 4.8 | 11.3 | 0.00 | 0.00 | 0.00 | 72 | 1009.4 |
| 20260503023608 | 17 | 224 | 4.8 | 14.5 | 0.00 | 0.00 | 0.00 | 72 | 1009.4 |
| 20260503023538 | 17 | 239 | 4.8 | 14.5 | 0.00 | 0.00 | 0.00 | 72 | 1009.5 |
| 20260503023449 | 17 | 225 | 4.8 | 14.5 | 0.00 | 0.00 | 0.00 | 72 | 1009.4 |
| 20260503023332 | 17 | 240 | 4.8 | 14.5 | 0.00 | 0.00 | 0.00 | 72 | 1009.4 |
| 20260503023233 | 17 | 216 | 4.8 | 14.5 | 0.00 | 0.00 | 0.00 | 72 | 1009.4 |
| 20260503023132 | 17 | 256 | 4.8 | 14.5 | 0.00 | 0.00 | 0.00 | 71 | 1009.4 |
| 20260503023032 | 17 | 237 | 4.8 | 14.5 | 0.00 | 0.00 | 0.00 | 71 | 1009.4 |
| 20260503022932 | 17 | 167 | 4.8 | 14.5 | 0.00 | 0.00 | 0.00 | 71 | 1009.4 |
| 20260503022840 | 17 | 238 | 4.8 | 14.5 | 0.00 | 0.00 | 0.00 | 71 | 1009.4 |
| 20260503022832 | 17 | 235 | 4.8 | 14.5 | 0.00 | 0.00 | 0.00 | 71 | 1009.4 |
| 20260503022733 | 17 | 198 | 4.8 | 14.5 | 0.00 | 0.00 | 0.00 | 71 | 1009.4 |
| 20260503022632 | 17 | 219 | 4.8 | 12.9 | 0.00 | 0.00 | 0.00 | 71 | 1009.4 |
| 20260503022532 | 17 | 252 | 4.8 | 12.9 | 0.00 | 0.00 | 0.00 | 71 | 1009.4 |
| 20260503022430 | 17 | 231 | 3.2 | 12.9 | 0.00 | 0.00 | 0.00 | 71 | 1009.4 |
| 20260503022329 | 17 | 226 | 3.2 | 12.9 | 0.00 | 0.00 | 0.00 | 71 | 1009.4 |
| 20260503022300 | 17 | 231 | 3.2 | 12.9 | 0.00 | 0.00 | 0.00 | 70 | 1009.4 |
| 20260503022130 | 17 | 248 | 1.6 | 12.9 | 0.00 | 0.00 | 0.00 | 70 | 1009.4 |
| 20260503022031 | 17 | 200 | 1.6 | 11.3 | 0.00 | 0.00 | 0.00 | 70 | 1009.4 |
| 20260503021930 | 17 | 250 | 1.6 | 8.0 | 0.00 | 0.00 | 0.00 | 70 | 1009.4 |
| 20260503021830 | 17 | 218 | 1.6 | 8.0 | 0.00 | 0.00 | 0.00 | 70 | 1009.4 |
| 20260503021728 | 17 | 239 | 1.6 | 8.0 | 0.00 | 0.00 | 0.00 | 70 | 1009.4 |
| 20260503021626 | 17 | 281 | 1.6 | 8.0 | 0.00 | 0.00 | 0.00 | 70 | 1009.4 |
| 20260503021526 | 17 | 236 | 1.6 | 8.0 | 0.00 | 0.00 | 0.00 | 70 | 1009.4 |
| 20260503021427 | 17 | 236 | 1.6 | 8.0 | 0.00 | 0.00 | 0.00 | 69 | 1009.3 |
| 20260503021324 | 17 | 236 | 1.6 | 8.0 | 0.00 | 0.00 | 0.00 | 69 | 1009.4 |
| 20260503021252 | 17 | 232 | 1.6 | 8.0 | 0.00 | 0.00 | 0.00 | 69 | 1009.4 |
| 20260503021221 | 17 | 232 | 1.6 | 8.0 | 0.00 | 0.00 | 0.00 | 69 | 1009.4 |
| 20260503021121 | 17 | 259 | 1.6 | 8.0 | 0.00 | 0.00 | 0.00 | 69 | 1009.4 |
| 20260503021020 | 17 | 225 | 1.6 | 4.8 | 0.00 | 0.00 | 0.00 | 69 | 1009.4 |
| 20260503020918 | 17 | 219 | 0.0 | 4.8 | 0.00 | 0.00 | 0.00 | 69 | 1009.4 |
| 20260503020831 | 17 | 210 | 0.0 | 4.8 | 0.00 | 0.00 | 0.00 | 69 | 1009.4 |
| 20260503020816 | 17 | 229 | 0.0 | 4.8 | 0.00 | 0.00 | 0.00 | 68 | 1009.4 |
| 20260503020715 | 18 | 207 | 0.0 | 4.8 | 0.00 | 0.00 | 0.00 | 68 | 1009.4 |
| 20260503020615 | 18 | 296 | 0.0 | 4.8 | 0.00 | 0.00 | 0.00 | 69 | 1009.3 |
| 20260503020514 | 18 | 241 | 1.6 | 6.4 | 0.00 | 0.00 | 0.00 | 69 | 1009.4 |
| 20260503020412 | 18 | 238 | 1.6 | 9.7 | 0.00 | 0.00 | 0.00 | 69 | 1009.4 |
| 20260503020310 | 18 | 238 | 1.6 | 14.5 | 0.00 | 0.00 | 0.00 | 69 | 1009.4 |
| 20260503020209 | 18 | 239 | 1.6 | 14.5 | 0.00 | 0.00 | 0.00 | 69 | 1009.4 |
| 20260503020108 | 18 | 238 | 1.6 | 14.5 | 0.00 | 0.00 | 0.00 | 69 | 1009.4 |
| 20260503020008 | 18 | 238 | 3.2 | 14.5 | 0.00 | 0.00 | 0.00 | 69 | 1009.4 |
| 20260503015906 | 18 | 238 | 3.2 | 14.5 | 0.00 | 0.00 | 0.00 | 69 | 1009.3 |
| 20260503015830 | 18 | 238 | 3.2 | 14.5 | 0.00 | 0.00 | 0.00 | 69 | 1009.3 |
| 20260503015803 | 18 | 238 | 3.2 | 14.5 | 0.00 | 0.00 | 0.00 | 69 | 1009.3 |
| 20260503015659 | 18 | 222 | 3.2 | 14.5 | 0.00 | 0.00 | 0.00 | 69 | 1009.4 |
| 20260503015558 | 18 | 239 | 4.8 | 14.5 | 0.00 | 0.00 | 0.00 | 68 | 1009.4 |
| 20260503015458 | 18 | 240 | 4.8 | 14.5 | 0.00 | 0.00 | 0.00 | 68 | 1009.4 |
| 20260503015358 | 18 | 225 | 3.2 | 14.5 | 0.00 | 0.00 | 0.00 | 68 | 1009.4 |
| 20260503015334 | 18 | 232 | 4.8 | 14.5 | 0.00 | 0.00 | 0.00 | 68 | 1009.4 |
| 20260503015259 | 18 | 229 | 4.8 | 14.5 | 0.00 | 0.00 | 0.00 | 69 | 1009.4 |
| 20260503015152 | 18 | 277 | 3.2 | 11.3 | 0.00 | 0.00 | 0.00 | 68 | 1009.4 |
| 20260503015052 | 18 | 277 | 4.8 | 11.3 | 0.00 | 0.00 | 0.00 | 68 | 1009.4 |
| 20260503014952 | 18 | 229 | 3.2 | 11.3 | 0.00 | 0.00 | 0.00 | 68 | 1009.4 |
| 20260503014852 | 18 | 232 | 4.8 | 11.3 | 0.00 | 0.00 | 0.00 | 68 | 1009.4 |
| 20260503014831 | 18 | 253 | 3.2 | 11.3 | 0.00 | 0.00 | 0.00 | 67 | 1009.4 |
| 20260503014751 | 18 | 242 | 3.2 | 9.7 | 0.00 | 0.00 | 0.00 | 67 | 1009.4 |
| 20260503014647 | 18 | 218 | 3.2 | 9.7 | 0.00 | 0.00 | 0.00 | 67 | 1009.4 |
| 20260503014546 | 18 | 211 | 3.2 | 9.7 | 0.00 | 0.00 | 0.00 | 67 | 1009.4 |
| 20260503014446 | 18 | 228 | 3.2 | 9.7 | 0.00 | 0.00 | 0.00 | 67 | 1009.4 |
| 20260503014346 | 18 | 259 | 1.6 | 9.7 | 0.00 | 0.00 | 0.00 | 66 | 1009.4 |
| 20260503014330 | 18 | 208 | 1.6 | 9.7 | 0.00 | 0.00 | 0.00 | 67 | 1009.4 |
| 20260503014246 | 18 | 235 | 1.6 | 8.0 | 0.00 | 0.00 | 0.00 | 67 | 1009.4 |
| 20260503014140 | 18 | 321 | 1.6 | 8.0 | 0.00 | 0.00 | 0.00 | 68 | 1009.4 |
| 20260503014041 | 18 | 256 | 1.6 | 9.7 | 0.00 | 0.00 | 0.00 | 68 | 1009.4 |
| 20260503013939 | 18 | 236 | 3.2 | 9.7 | 0.00 | 0.00 | 0.00 | 68 | 1009.4 |
| 20260503013844 | 18 | 246 | 3.2 | 14.5 | 0.00 | 0.00 | 0.00 | 68 | 1009.4 |
| 20260503013833 | 18 | 246 | 3.2 | 17.7 | 0.00 | 0.00 | 0.00 | 68 | 1009.4 |
| 20260503013740 | 18 | 319 | 3.2 | 17.7 | 0.00 | 0.00 | 0.00 | 68 | 1009.4 |
| 20260503013636 | 18 | 283 | 3.2 | 17.7 | 0.00 | 0.00 | 0.00 | 68 | 1009.4 |
| 20260503013536 | 18 | 232 | 4.8 | 17.7 | 0.00 | 0.00 | 0.00 | 68 | 1009.4 |
| 20260503013436 | 18 | 229 | 4.8 | 17.7 | 0.00 | 0.00 | 0.00 | 68 | 1009.4 |
| 20260503013330 | 18 | 246 | 4.8 | 17.7 | 0.00 | 0.00 | 0.00 | 68 | 1009.4 |
| 20260503013234 | 18 | 246 | 4.8 | 17.7 | 0.00 | 0.00 | 0.00 | 68 | 1009.4 |
| 20260503013132 | 18 | 283 | 4.8 | 17.7 | 0.00 | 0.00 | 0.00 | 68 | 1009.4 |
| 20260503013032 | 18 | 195 | 4.8 | 17.7 | 0.00 | 0.00 | 0.00 | 67 | 1009.5 |
| 20260503012932 | 18 | 239 | 4.8 | 17.7 | 0.00 | 0.00 | 0.00 | 67 | 1009.4 |
| 20260503012835 | 18 | 243 | 3.2 | 14.5 | 0.00 | 0.00 | 0.00 | 67 | 1009.4 |
| 20260503012732 | 18 | 233 | 3.2 | 14.5 | 0.00 | 0.00 | 0.00 | 67 | 1009.4 |
| 20260503012632 | 18 | 233 | 4.8 | 14.5 | 0.00 | 0.00 | 0.00 | 67 | 1009.4 |
| 20260503012553 | 18 | 231 | 6.4 | 17.7 | 0.00 | 0.00 | 0.00 | 66 | 1009.4 |
| 20260503012532 | 18 | 239 | 4.8 | 17.7 | 0.00 | 0.00 | 0.00 | 66 | 1009.4 |
| 20260503012446 | 18 | 224 | 6.4 | 17.7 | 0.00 | 0.00 | 0.00 | 66 | 1009.4 |
| 20260503012330 | 18 | 249 | 6.4 | 17.7 | 0.00 | 0.00 | 0.00 | 66 | 1009.4 |
| 20260503012230 | 18 | 286 | 8.0 | 19.3 | 0.00 | 0.00 | 0.00 | 67 | 1009.4 |
| 20260503012130 | 18 | 243 | 6.4 | 19.3 | 0.00 | 0.00 | 0.00 | 66 | 1009.4 |
| 20260503012058 | 18 | 240 | 8.0 | 19.3 | 0.00 | 0.00 | 0.00 | 66 | 1009.4 |
| 20260503012030 | 18 | 233 | 6.4 | 19.3 | 0.00 | 0.00 | 0.00 | 66 | 1009.4 |
| 20260503011947 | 18 | 238 | 6.4 | 19.3 | 0.00 | 0.00 | 0.00 | 66 | 1009.4 |
| 20260503011830 | 18 | 240 | 8.0 | 19.3 | 0.00 | 0.00 | 0.00 | 66 | 1009.4 |
| 20260503011730 | 18 | 218 | 8.0 | 19.3 | 0.00 | 0.00 | 0.00 | 66 | 1009.4 |
| 20260503011631 | 18 | 228 | 8.0 | 19.3 | 0.00 | 0.00 | 0.00 | 65 | 1009.4 |
| 20260503011530 | 18 | 274 | 8.0 | 19.3 | 0.00 | 0.00 | 0.00 | 65 | 1009.4 |
| 20260503011426 | 18 | 250 | 6.4 | 19.3 | 0.00 | 0.00 | 0.00 | 65 | 1009.4 |
| 20260503011334 | 18 | 194 | 6.4 | 19.3 | 0.00 | 0.00 | 0.00 | 66 | 1009.4 |
| 20260503011326 | 18 | 231 | 6.4 | 19.3 | 0.00 | 0.00 | 0.00 | 66 | 1009.4 |
| 20260503011229 | 18 | 242 | 6.4 | 17.7 | 0.00 | 0.00 | 0.00 | 66 | 1009.4 |
| 20260503011127 | 18 | 229 | 6.4 | 17.7 | 0.00 | 0.00 | 0.00 | 66 | 1009.4 |
| 20260503011052 | 18 | 245 | 6.4 | 17.7 | 0.00 | 0.00 | 0.00 | 65 | 1009.4 |
| 20260503011026 | 18 | 259 | 6.4 | 17.7 | 0.00 | 0.00 | 0.00 | 66 | 1009.4 |
| 20260503010944 | 18 | 248 | 6.4 | 17.7 | 0.00 | 0.00 | 0.00 | 65 | 1009.4 |
| 20260503010826 | 18 | 242 | 6.4 | 17.7 | 0.00 | 0.00 | 0.00 | 65 | 1009.4 |
| 20260503010729 | 19 | 262 | 4.8 | 17.7 | 0.00 | 0.00 | 0.00 | 65 | 1009.4 |
| 20260503010626 | 19 | 225 | 4.8 | 17.7 | 0.00 | 0.00 | 0.00 | 64 | 1009.5 |
| 20260503010524 | 19 | 229 | 4.8 | 17.7 | 0.00 | 0.00 | 0.00 | 65 | 1009.5 |
| 20260503010424 | 19 | 217 | 4.8 | 14.5 | 0.00 | 0.00 | 0.00 | 65 | 1009.4 |
| 20260503010324 | 19 | 287 | 4.8 | 14.5 | 0.00 | 0.00 | 0.00 | 64 | 1009.4 |
| 20260503010224 | 19 | 221 | 3.2 | 14.5 | 0.00 | 0.00 | 0.00 | 64 | 1009.5 |
| 20260503010124 | 19 | 248 | 3.2 | 17.7 | 0.00 | 0.00 | 0.00 | 64 | 1009.5 |
| 20260503010025 | 19 | 268 | 3.2 | 17.7 | 0.00 | 0.00 | 0.00 | 64 | 1009.5 |
| 20260503005924 | 19 | 240 | 3.2 | 17.7 | 0.00 | 0.00 | 0.00 | 64 | 1009.4 |
| 20260503005832 | 19 | 239 | 3.2 | 17.7 | 0.00 | 0.00 | 0.00 | 64 | 1009.5 |
| 20260503005824 | 19 | 207 | 3.2 | 17.7 | 0.00 | 0.00 | 0.00 | 64 | 1009.5 |
| 20260503005723 | 19 | 231 | 3.2 | 17.7 | 0.00 | 0.00 | 0.00 | 64 | 1009.5 |
| 20260503005622 | 19 | 212 | 3.2 | 17.7 | 0.00 | 0.00 | 0.00 | 63 | 1009.5 |
| 20260503005522 | 19 | 290 | 3.2 | 17.7 | 0.00 | 0.00 | 0.00 | 64 | 1009.5 |
| 20260503005422 | 19 | 274 | 3.2 | 17.7 | 0.00 | 0.00 | 0.00 | 64 | 1009.4 |
| 20260503005330 | 19 | 287 | 3.2 | 17.7 | 0.00 | 0.00 | 0.00 | 63 | 1009.5 |
| 20260503005322 | 19 | 293 | 3.2 | 17.7 | 0.00 | 0.00 | 0.00 | 63 | 1009.5 |
| 20260503005222 | 19 | 283 | 3.2 | 17.7 | 0.00 | 0.00 | 0.00 | 63 | 1009.4 |
| 20260503005122 | 19 | 242 | 3.2 | 11.3 | 0.00 | 0.00 | 0.00 | 63 | 1009.4 |
| 20260503005019 | 19 | 262 | 3.2 | 11.3 | 0.00 | 0.00 | 0.00 | 63 | 1009.4 |
| 20260503004920 | 19 | 274 | 3.2 | 11.3 | 0.00 | 0.00 | 0.00 | 63 | 1009.4 |
| 20260503004827 | 19 | 245 | 3.2 | 11.3 | 0.00 | 0.00 | 0.00 | 63 | 1009.4 |
| 20260503004820 | 19 | 233 | 3.2 | 11.3 | 0.00 | 0.00 | 0.00 | 63 | 1009.4 |
| 20260503004720 | 19 | 278 | 3.2 | 11.3 | 0.00 | 0.00 | 0.00 | 64 | 1009.3 |
| 20260503004620 | 19 | 233 | 3.2 | 12.9 | 0.00 | 0.00 | 0.00 | 64 | 1009.3 |
| 20260503004520 | 19 | 230 | 3.2 | 12.9 | 0.00 | 0.00 | 0.00 | 64 | 1009.3 |
| 20260503004420 | 19 | 301 | 3.2 | 12.9 | 0.00 | 0.00 | 0.00 | 64 | 1009.3 |
| 20260503004320 | 19 | 240 | 3.2 | 12.9 | 0.00 | 0.00 | 0.00 | 64 | 1009.3 |
| 20260503004220 | 19 | 238 | 4.8 | 12.9 | 0.00 | 0.00 | 0.00 | 64 | 1009.3 |
| 20260503004120 | 19 | 271 | 4.8 | 17.7 | 0.00 | 0.00 | 0.00 | 63 | 1009.3 |
| 20260503004015 | 19 | 233 | 4.8 | 17.7 | 0.00 | 0.00 | 0.00 | 64 | 1009.3 |
| 20260503003915 | 19 | 224 | 4.8 | 17.7 | 0.00 | 0.00 | 0.00 | 64 | 1009.3 |
| 20260503003824 | 19 | 245 | 4.8 | 17.7 | 0.00 | 0.00 | 0.00 | 64 | 1009.3 |
| 20260503003812 | 19 | 239 | 4.8 | 17.7 | 0.00 | 0.00 | 0.00 | 64 | 1009.3 |
| 20260503003712 | 19 | 267 | 4.8 | 17.7 | 0.00 | 0.00 | 0.00 | 63 | 1009.4 |
| 20260503003612 | 19 | 240 | 4.8 | 17.7 | 0.00 | 0.00 | 0.00 | 64 | 1009.4 |
| 20260503003508 | 19 | 273 | 4.8 | 17.7 | 0.00 | 0.00 | 0.00 | 64 | 1009.3 |
| 20260503003406 | 19 | 248 | 4.8 | 17.7 | 0.00 | 0.00 | 0.00 | 64 | 1009.4 |
| 20260503003324 | 19 | 256 | 6.4 | 17.7 | 0.00 | 0.00 | 0.00 | 63 | 1009.4 |
| 20260503003304 | 19 | 252 | 6.4 | 19.3 | 0.00 | 0.00 | 0.00 | 63 | 1009.4 |
| 20260503003204 | 19 | 242 | 6.4 | 19.3 | 0.00 | 0.00 | 0.00 | 63 | 1009.4 |
| 20260503003104 | 19 | 260 | 6.4 | 19.3 | 0.00 | 0.00 | 0.00 | 63 | 1009.4 |
| 20260503003049 | 20 | 245 | 4.8 | 19.3 | 0.00 | 0.00 | 0.00 | 62 | 1009.4 |
| 20260503003000 | 19 | 266 | 6.4 | 19.3 | 0.00 | 0.00 | 0.00 | 62 | 1009.4 |
| 20260503002937 | 20 | 264 | 4.8 | 19.3 | 0.00 | 0.00 | 0.00 | 63 | 1009.4 |
| 20260503002800 | 20 | 245 | 4.8 | 19.3 | 0.00 | 0.00 | 0.00 | 62 | 1009.4 |
| 20260503002700 | 20 | 236 | 4.8 | 19.3 | 0.00 | 0.00 | 0.00 | 62 | 1009.4 |
| 20260503002600 | 20 | 257 | 4.8 | 19.3 | 0.00 | 0.00 | 0.00 | 62 | 1009.4 |
| 20260503002501 | 20 | 263 | 4.8 | 19.3 | 0.00 | 0.00 | 0.00 | 62 | 1009.4 |
| 20260503002400 | 20 | 229 | 4.8 | 19.3 | 0.00 | 0.00 | 0.00 | 62 | 1009.4 |
| 20260503002324 | 20 | 204 | 4.8 | 19.3 | 0.00 | 0.00 | 0.00 | 62 | 1009.4 |
| 20260503002300 | 20 | 214 | 4.8 | 14.5 | 0.00 | 0.00 | 0.00 | 62 | 1009.4 |
| 20260503002201 | 20 | 222 | 4.8 | 17.7 | 0.00 | 0.00 | 0.00 | 62 | 1009.4 |
| 20260503002100 | 20 | 256 | 4.8 | 17.7 | 0.00 | 0.00 | 0.00 | 62 | 1009.4 |
| 20260503002000 | 20 | 259 | 4.8 | 17.7 | 0.00 | 0.00 | 0.00 | 62 | 1009.4 |
| 20260503001900 | 20 | 240 | 4.8 | 17.7 | 0.00 | 0.00 | 0.00 | 63 | 1009.3 |
| 20260503001824 | 20 | 228 | 4.8 | 17.7 | 0.00 | 0.00 | 0.00 | 63 | 1009.3 |
| 20260503001800 | 20 | 277 | 4.8 | 17.7 | 0.00 | 0.00 | 0.00 | 63 | 1009.3 |
| 20260503001700 | 20 | 193 | 6.4 | 17.7 | 0.00 | 0.00 | 0.00 | 62 | 1009.3 |
| 20260503001600 | 20 | 193 | 6.4 | 17.7 | 0.00 | 0.00 | 0.00 | 62 | 1009.4 |
| 20260503001500 | 20 | 240 | 6.4 | 17.7 | 0.00 | 0.00 | 0.00 | 62 | 1009.4 |
| 20260503001400 | 20 | 248 | 6.4 | 17.7 | 0.00 | 0.00 | 0.00 | 61 | 1009.4 |
| 20260503001323 | 20 | 243 | 6.4 | 17.7 | 0.00 | 0.00 | 0.00 | 61 | 1009.4 |
| 20260503001258 | 20 | 229 | 6.4 | 17.7 | 0.00 | 0.00 | 0.00 | 61 | 1009.4 |
| 20260503001159 | 20 | 239 | 6.4 | 17.7 | 0.00 | 0.00 | 0.00 | 60 | 1009.4 |
| 20260503001059 | 20 | 235 | 6.4 | 17.7 | 0.00 | 0.00 | 0.00 | 60 | 1009.4 |
| 20260503000959 | 20 | 214 | 6.4 | 17.7 | 0.00 | 0.00 | 0.00 | 60 | 1009.4 |
| 20260503000858 | 20 | 224 | 6.4 | 17.7 | 0.00 | 0.00 | 0.00 | 61 | 1009.4 |
| 20260503000823 | 20 | 214 | 6.4 | 17.7 | 0.00 | 0.00 | 0.00 | 60 | 1009.4 |
| 20260503000758 | 20 | 225 | 6.4 | 17.7 | 0.00 | 0.00 | 0.00 | 60 | 1009.4 |
| 20260503000656 | 20 | 259 | 8.0 | 17.7 | 0.00 | 0.00 | 0.00 | 60 | 1009.4 |
| 20260503000555 | 20 | 191 | 8.0 | 17.7 | 0.00 | 0.00 | 0.00 | 59 | 1009.4 |
| 20260503000543 | 20 | 243 | 8.0 | 17.7 | 0.00 | 0.00 | 0.00 | 59 | 1009.5 |
| 20260503000456 | 20 | 195 | 8.0 | 17.7 | 0.00 | 0.00 | 0.00 | 59 | 1009.4 |
| 20260503000434 | 20 | 160 | 8.0 | 17.7 | 0.00 | 0.00 | 0.00 | 59 | 1009.4 |
| 20260503000256 | 20 | 212 | 8.0 | 17.7 | 0.00 | 0.00 | 0.00 | 59 | 1009.5 |
| 20260503000156 | 20 | 204 | 8.0 | 17.7 | 0.00 | 0.00 | 0.00 | 59 | 1009.4 |
| 20260503000056 | 20 | 243 | 6.4 | 17.7 | 0.00 | 0.00 | 0.00 | 59 | 1009.5 |
| 20260502235955 | 20 | 166 | 6.4 | 17.7 | 0.00 | 0.00 | 0.00 | 60 | 1009.5 |
| 20260502235856 | 20 | 219 | 6.4 | 17.7 | 0.00 | 0.00 | 0.00 | 60 | 1009.5 |
| 20260502235825 | 20 | 201 | 4.8 | 17.7 | 0.00 | 0.00 | 0.00 | 60 | 1009.5 |
| 20260502235756 | 20 | 253 | 4.8 | 17.7 | 0.00 | 0.00 | 0.00 | 60 | 1009.5 |
| 20260502235656 | 20 | 231 | 4.8 | 17.7 | 0.00 | 0.00 | 0.00 | 60 | 1009.5 |
| 20260502235550 | 20 | 224 | 4.8 | 16.1 | 0.00 | 0.00 | 0.00 | 61 | 1009.5 |
| 20260502235451 | 20 | 249 | 3.2 | 11.3 | 0.00 | 0.00 | 0.00 | 61 | 1009.6 |
| 20260502235350 | 20 | 203 | 3.2 | 12.9 | 0.00 | 0.00 | 0.00 | 60 | 1009.5 |
| 20260502235320 | 20 | 224 | 3.2 | 12.9 | 0.00 | 0.00 | 0.00 | 61 | 1009.6 |
| 20260502235250 | 20 | 267 | 3.2 | 16.1 | 0.00 | 0.00 | 0.00 | 61 | 1009.6 |
| 20260502235150 | 20 | 231 | 4.8 | 16.1 | 0.00 | 0.00 | 0.00 | 61 | 1009.6 |
| 20260502235048 | 20 | 226 | 4.8 | 16.1 | 0.00 | 0.00 | 0.00 | 62 | 1009.6 |
| 20260502234948 | 20 | 242 | 6.4 | 16.1 | 0.00 | 0.00 | 0.00 | 62 | 1009.6 |
| 20260502234848 | 20 | 210 | 6.4 | 17.7 | 0.00 | 0.00 | 0.00 | 62 | 1009.6 |
| 20260502234821 | 20 | 236 | 6.4 | 17.7 | 0.00 | 0.00 | 0.00 | 62 | 1009.7 |
| 20260502234748 | 20 | 210 | 6.4 | 17.7 | 0.00 | 0.00 | 0.00 | 62 | 1009.7 |
| 20260502234648 | 20 | 203 | 6.4 | 17.7 | 0.00 | 0.00 | 0.00 | 62 | 1009.7 |
| 20260502234549 | 20 | 245 | 8.0 | 17.7 | 0.00 | 0.00 | 0.00 | 62 | 1009.7 |
| 20260502234448 | 20 | 238 | 8.0 | 17.7 | 0.00 | 0.00 | 0.00 | 62 | 1009.7 |
| 20260502234348 | 20 | 266 | 8.0 | 17.7 | 0.00 | 0.00 | 0.00 | 61 | 1009.7 |
| 20260502234320 | 20 | 228 | 8.0 | 17.7 | 0.00 | 0.00 | 0.00 | 61 | 1009.7 |
| 20260502234246 | 20 | 207 | 8.0 | 17.7 | 0.00 | 0.00 | 0.00 | 61 | 1009.7 |
| 20260502234146 | 20 | 235 | 6.4 | 17.7 | 0.00 | 0.00 | 0.00 | 60 | 1009.7 |
| 20260502234046 | 20 | 271 | 6.4 | 17.7 | 0.00 | 0.00 | 0.00 | 61 | 1009.7 |
| 20260502233946 | 20 | 221 | 4.8 | 17.7 | 0.00 | 0.00 | 0.00 | 62 | 1009.7 |
| 20260502233842 | 20 | 218 | 4.8 | 17.7 | 0.00 | 0.00 | 0.00 | 62 | 1009.7 |
| 20260502233821 | 20 | 255 | 4.8 | 17.7 | 0.00 | 0.00 | 0.00 | 62 | 1009.7 |
| 20260502233742 | 20 | 221 | 4.8 | 17.7 | 0.00 | 0.00 | 0.00 | 62 | 1009.7 |
| 20260502233642 | 20 | 212 | 4.8 | 17.7 | 0.00 | 0.00 | 0.00 | 61 | 1009.7 |
| 20260502233542 | 20 | 243 | 3.2 | 12.9 | 0.00 | 0.00 | 0.00 | 62 | 1009.8 |
| 20260502233442 | 20 | 215 | 3.2 | 12.9 | 0.00 | 0.00 | 0.00 | 63 | 1009.8 |
| 20260502233342 | 20 | 238 | 3.2 | 12.9 | 0.00 | 0.00 | 0.00 | 63 | 1009.8 |
| 20260502233319 | 20 | 292 | 4.8 | 12.9 | 0.00 | 0.00 | 0.00 | 63 | 1009.8 |
| 20260502233243 | 20 | 240 | 4.8 | 14.5 | 0.00 | 0.00 | 0.00 | 62 | 1009.8 |
| 20260502233142 | 20 | 250 | 4.8 | 14.5 | 0.00 | 0.00 | 0.00 | 62 | 1009.8 |
| 20260502233043 | 20 | 243 | 4.8 | 14.5 | 0.00 | 0.00 | 0.00 | 62 | 1009.8 |
| 20260502232942 | 20 | 229 | 6.4 | 14.5 | 0.00 | 0.00 | 0.00 | 62 | 1009.8 |
| 20260502232842 | 20 | 235 | 6.4 | 14.5 | 0.00 | 0.00 | 0.00 | 63 | 1009.8 |
| 20260502232818 | 20 | 257 | 6.4 | 14.5 | 0.00 | 0.00 | 0.00 | 63 | 1009.8 |
| 20260502232742 | 20 | 225 | 6.4 | 14.5 | 0.00 | 0.00 | 0.00 | 63 | 1009.7 |
| 20260502232642 | 20 | 256 | 6.4 | 14.5 | 0.00 | 0.00 | 0.00 | 63 | 1009.8 |
| 20260502232542 | 20 | 248 | 6.4 | 14.5 | 0.00 | 0.00 | 0.00 | 62 | 1009.7 |
| 20260502232442 | 20 | 238 | 6.4 | 14.5 | 0.00 | 0.00 | 0.00 | 62 | 1009.8 |
| 20260502232342 | 20 | 245 | 6.4 | 14.5 | 0.00 | 0.00 | 0.00 | 62 | 1009.7 |
| 20260502232316 | 20 | 232 | 6.4 | 14.5 | 0.00 | 0.00 | 0.00 | 61 | 1009.7 |
| 20260502232242 | 20 | 250 | 6.4 | 14.5 | 0.00 | 0.00 | 0.00 | 61 | 1009.8 |
| 20260502232142 | 20 | 263 | 6.4 | 14.5 | 0.00 | 0.00 | 0.00 | 62 | 1009.8 |
| 20260502232042 | 20 | 245 | 6.4 | 14.5 | 0.00 | 0.00 | 0.00 | 61 | 1009.8 |
| 20260502231942 | 20 | 210 | 4.8 | 14.5 | 0.00 | 0.00 | 0.00 | 61 | 1009.8 |
| 20260502231842 | 21 | 283 | 4.8 | 14.5 | 0.00 | 0.00 | 0.00 | 62 | 1009.8 |
| 20260502231816 | 21 | 245 | 4.8 | 14.5 | 0.00 | 0.00 | 0.00 | 61 | 1009.8 |
| 20260502231742 | 21 | 290 | 4.8 | 14.5 | 0.00 | 0.00 | 0.00 | 61 | 1009.8 |
| 20260502231643 | 21 | 246 | 4.8 | 14.5 | 0.00 | 0.00 | 0.00 | 62 | 1009.8 |
| 20260502231542 | 21 | 217 | 4.8 | 14.5 | 0.00 | 0.00 | 0.00 | 62 | 1009.8 |
| 20260502231442 | 21 | 241 | 6.4 | 14.5 | 0.00 | 0.00 | 0.00 | 61 | 1009.9 |
| 20260502231342 | 21 | 221 | 6.4 | 14.5 | 0.00 | 0.00 | 0.00 | 61 | 1009.8 |
| 20260502231316 | 21 | 224 | 6.4 | 14.5 | 0.00 | 0.00 | 0.00 | 61 | 1009.8 |
| 20260502231242 | 21 | 212 | 4.8 | 14.5 | 0.00 | 0.00 | 0.00 | 61 | 1009.9 |
| 20260502231142 | 21 | 232 | 4.8 | 14.5 | 0.00 | 0.00 | 0.00 | 61 | 1009.9 |
| 20260502231043 | 21 | 273 | 6.4 | 14.5 | 0.00 | 0.00 | 0.00 | 61 | 1009.9 |
| 20260502230941 | 21 | 221 | 6.4 | 14.5 | 0.00 | 0.00 | 0.00 | 61 | 1009.9 |
| 20260502230842 | 21 | 238 | 4.8 | 14.5 | 0.00 | 0.00 | 0.00 | 62 | 1009.9 |
| 20260502230815 | 21 | 271 | 4.8 | 14.5 | 0.00 | 0.00 | 0.00 | 62 | 1009.9 |
| 20260502230742 | 21 | 260 | 4.8 | 14.5 | 0.00 | 0.00 | 0.00 | 61 | 1009.9 |
| 20260502230642 | 21 | 214 | 4.8 | 14.5 | 0.00 | 0.00 | 0.00 | 61 | 1010.0 |
| 20260502230542 | 21 | 210 | 4.8 | 14.5 | 0.00 | 0.00 | 0.00 | 60 | 1010.0 |
| 20260502230442 | 21 | 217 | 4.8 | 14.5 | 0.00 | 0.00 | 0.00 | 61 | 1010.0 |
| 20260502230342 | 21 | 260 | 4.8 | 14.5 | 0.00 | 0.00 | 0.00 | 61 | 1010.1 |
| 20260502230315 | 21 | 228 | 4.8 | 14.5 | 0.00 | 0.00 | 0.00 | 61 | 1010.1 |
| 20260502230242 | 21 | 240 | 4.8 | 14.5 | 0.00 | 0.00 | 0.00 | 61 | 1010.1 |
| 20260502230142 | 21 | 242 | 4.8 | 14.5 | 0.00 | 0.00 | 0.00 | 60 | 1010.1 |
| 20260502230042 | 21 | 257 | 4.8 | 14.5 | 0.00 | 0.00 | 0.00 | 61 | 1010.1 |
| 20260502225942 | 21 | 250 | 4.8 | 14.5 | 0.00 | 0.00 | 0.00 | 62 | 1010.1 |
| 20260502225842 | 21 | 252 | 4.8 | 14.5 | 0.00 | 0.00 | 0.00 | 62 | 1010.1 |
| 20260502225813 | 21 | 181 | 4.8 | 14.5 | 0.00 | 0.00 | 0.00 | 62 | 1010.1 |
| 20260502225742 | 21 | 302 | 4.8 | 14.5 | 0.00 | 0.00 | 0.00 | 62 | 1010.1 |
| 20260502225642 | 21 | 267 | 4.8 | 14.5 | 0.00 | 0.00 | 0.00 | 63 | 1010.2 |
| 20260502225538 | 21 | 245 | 6.4 | 14.5 | 0.00 | 0.00 | 0.00 | 62 | 1010.2 |
| 20260502225438 | 21 | 282 | 6.4 | 19.3 | 0.00 | 0.00 | 0.00 | 62 | 1010.1 |
| 20260502225339 | 21 | 239 | 6.4 | 19.3 | 0.00 | 0.00 | 0.00 | 62 | 1010.2 |
| 20260502225315 | 21 | 256 | 6.4 | 19.3 | 0.00 | 0.00 | 0.00 | 62 | 1010.2 |
| 20260502225236 | 21 | 217 | 4.8 | 19.3 | 0.00 | 0.00 | 0.00 | 62 | 1010.2 |
| 20260502225136 | 21 | 256 | 4.8 | 19.3 | 0.00 | 0.00 | 0.00 | 62 | 1010.2 |
| 20260502225036 | 21 | 295 | 6.4 | 19.3 | 0.00 | 0.00 | 0.00 | 62 | 1010.2 |
| 20260502224936 | 21 | 269 | 6.4 | 19.3 | 0.00 | 0.00 | 0.00 | 61 | 1010.1 |
| 20260502224836 | 21 | 245 | 6.4 | 19.3 | 0.00 | 0.00 | 0.00 | 61 | 1010.2 |
| 20260502224814 | 21 | 239 | 6.4 | 19.3 | 0.00 | 0.00 | 0.00 | 61 | 1010.2 |
| 20260502224736 | 21 | 238 | 6.4 | 19.3 | 0.00 | 0.00 | 0.00 | 61 | 1010.2 |
| 20260502224636 | 21 | 297 | 6.4 | 19.3 | 0.00 | 0.00 | 0.00 | 61 | 1010.2 |
| 20260502224545 | 21 | 295 | 4.8 | 19.3 | 0.00 | 0.00 | 0.00 | 60 | 1010.2 |
| 20260502224536 | 21 | 239 | 6.4 | 19.3 | 0.00 | 0.00 | 0.00 | 60 | 1010.2 |
| 20260502224436 | 21 | 262 | 4.8 | 19.3 | 0.00 | 0.00 | 0.00 | 60 | 1010.2 |
| 20260502224427 | 21 | 236 | 4.8 | 19.3 | 0.00 | 0.00 | 0.00 | 60 | 1010.2 |
| 20260502224236 | 21 | 259 | 4.8 | 19.3 | 0.00 | 0.00 | 0.00 | 60 | 1010.3 |
| 20260502224137 | 21 | 259 | 4.8 | 19.3 | 0.00 | 0.00 | 0.00 | 59 | 1010.3 |
| 20260502224036 | 21 | 250 | 4.8 | 19.3 | 0.00 | 0.00 | 0.00 | 59 | 1010.3 |
| 20260502223936 | 21 | 225 | 3.2 | 14.5 | 0.00 | 0.00 | 0.00 | 59 | 1010.3 |
| 20260502223836 | 21 | 266 | 3.2 | 14.5 | 0.00 | 0.00 | 0.00 | 59 | 1010.3 |
| 20260502223815 | 21 | 241 | 3.2 | 14.5 | 0.00 | 0.00 | 0.00 | 59 | 1010.3 |
| 20260502223736 | 21 | 221 | 3.2 | 14.5 | 0.00 | 0.00 | 0.00 | 59 | 1010.4 |
| 20260502223636 | 21 | 245 | 3.2 | 14.5 | 0.00 | 0.00 | 0.00 | 59 | 1010.4 |
| 20260502223536 | 22 | 288 | 3.2 | 14.5 | 0.00 | 0.00 | 0.00 | 58 | 1010.4 |
| 20260502223436 | 22 | 282 | 3.2 | 11.3 | 0.00 | 0.00 | 0.00 | 58 | 1010.4 |
| 20260502223336 | 21 | 283 | 4.8 | 12.9 | 0.00 | 0.00 | 0.00 | 58 | 1010.4 |
| 20260502223316 | 22 | 283 | 4.8 | 17.7 | 0.00 | 0.00 | 0.00 | 58 | 1010.4 |
| 20260502223236 | 22 | 283 | 4.8 | 17.7 | 0.00 | 0.00 | 0.00 | 58 | 1010.4 |
| 20260502223136 | 22 | 256 | 4.8 | 17.7 | 0.00 | 0.00 | 0.00 | 58 | 1010.4 |
| 20260502223037 | 21 | 250 | 4.8 | 17.7 | 0.00 | 0.00 | 0.00 | 58 | 1010.4 |
| 20260502222936 | 21 | 212 | 4.8 | 17.7 | 0.00 | 0.00 | 0.00 | 59 | 1010.5 |
| 20260502222836 | 21 | 253 | 4.8 | 17.7 | 0.00 | 0.00 | 0.00 | 60 | 1010.5 |
| 20260502222813 | 21 | 221 | 4.8 | 17.7 | 0.00 | 0.00 | 0.00 | 60 | 1010.5 |
| 20260502222736 | 21 | 231 | 4.8 | 17.7 | 0.00 | 0.00 | 0.00 | 60 | 1010.5 |
| 20260502222636 | 21 | 316 | 6.4 | 17.7 | 0.00 | 0.00 | 0.00 | 59 | 1010.5 |
| 20260502222537 | 21 | 302 | 6.4 | 17.7 | 0.00 | 0.00 | 0.00 | 59 | 1010.5 |
| 20260502222432 | 21 | 239 | 6.4 | 17.7 | 0.00 | 0.00 | 0.00 | 57 | 1010.5 |
| 20260502222332 | 21 | 243 | 6.4 | 17.7 | 0.00 | 0.00 | 0.00 | 58 | 1010.5 |
| 20260502222313 | 21 | 239 | 6.4 | 17.7 | 0.00 | 0.00 | 0.00 | 58 | 1010.5 |
| 20260502222233 | 21 | 243 | 6.4 | 17.7 | 0.00 | 0.00 | 0.00 | 57 | 1010.5 |
| 20260502222132 | 22 | 221 | 6.4 | 17.7 | 0.00 | 0.00 | 0.00 | 57 | 1010.6 |
| 20260502222032 | 22 | 263 | 6.4 | 17.7 | 0.00 | 0.00 | 0.00 | 59 | 1010.5 |
| 20260502221932 | 22 | 267 | 6.4 | 17.7 | 0.00 | 0.00 | 0.00 | 58 | 1010.6 |
| 20260502221833 | 21 | 239 | 6.4 | 17.7 | 0.00 | 0.00 | 0.00 | 58 | 1010.7 |
| 20260502221815 | 21 | 287 | 6.4 | 17.7 | 0.00 | 0.00 | 0.00 | 58 | 1010.7 |
| 20260502221801 | 22 | 248 | 4.8 | 14.5 | 0.00 | 0.00 | 0.00 | 57 | 1010.7 |
| 20260502221732 | 21 | 224 | 6.4 | 17.7 | 0.00 | 0.00 | 0.00 | 59 | 1010.7 |
| 20260502221648 | 21 | 260 | 6.4 | 17.7 | 0.00 | 0.00 | 0.00 | 59 | 1010.7 |
| 20260502221532 | 21 | 221 | 6.4 | 17.7 | 0.00 | 0.00 | 0.00 | 59 | 1010.7 |
| 20260502221434 | 21 | 259 | 6.4 | 17.7 | 0.00 | 0.00 | 0.00 | 59 | 1010.7 |
| 20260502221426 | 21 | 215 | 4.8 | 17.7 | 0.00 | 0.00 | 0.00 | 57 | 1010.7 |
| 20260502221233 | 22 | 231 | 4.8 | 14.5 | 0.00 | 0.00 | 0.00 | 58 | 1010.7 |
| 20260502221132 | 22 | 242 | 4.8 | 14.5 | 0.00 | 0.00 | 0.00 | 59 | 1010.7 |
| 20260502221032 | 22 | 242 | 3.2 | 14.5 | 0.00 | 0.00 | 0.00 | 58 | 1010.7 |
| 20260502220932 | 22 | 260 | 3.2 | 14.5 | 0.00 | 0.00 | 0.00 | 59 | 1010.7 |
| 20260502220832 | 22 | 222 | 3.2 | 12.9 | 0.00 | 0.00 | 0.00 | 59 | 1010.7 |
| 20260502220816 | 22 | 239 | 3.2 | 12.9 | 0.00 | 0.00 | 0.00 | 60 | 1010.7 |
| 20260502220732 | 22 | 203 | 4.8 | 12.9 | 0.00 | 0.00 | 0.00 | 60 | 1010.8 |
| 20260502220632 | 22 | 165 | 4.8 | 17.7 | 0.00 | 0.00 | 0.00 | 61 | 1010.8 |
| 20260502220528 | 22 | 238 | 4.8 | 17.7 | 0.00 | 0.00 | 0.00 | 61 | 1010.8 |
| 20260502220428 | 21 | 248 | 4.8 | 17.7 | 0.00 | 0.00 | 0.00 | 61 | 1010.8 |
| 20260502220328 | 21 | 256 | 4.8 | 17.7 | 0.00 | 0.00 | 0.00 | 62 | 1010.8 |
| 20260502220308 | 21 | 252 | 4.8 | 17.7 | 0.00 | 0.00 | 0.00 | 61 | 1010.8 |
| 20260502220228 | 21 | 269 | 4.8 | 17.7 | 0.00 | 0.00 | 0.00 | 62 | 1010.8 |
| 20260502220128 | 21 | 233 | 4.8 | 17.7 | 0.00 | 0.00 | 0.00 | 61 | 1010.8 |
| 20260502220026 | 21 | 235 | 6.4 | 17.7 | 0.00 | 0.00 | 0.00 | 61 | 1010.8 |
| 20260502215926 | 21 | 304 | 6.4 | 17.7 | 0.00 | 0.00 | 0.00 | 61 | 1010.9 |
| 20260502215843 | 21 | 210 | 6.4 | 17.7 | 0.00 | 0.00 | 0.00 | 61 | 1010.9 |
| 20260502215811 | 21 | 125 | 6.4 | 17.7 | 0.00 | 0.00 | 0.00 | 60 | 1010.9 |
| 20260502215728 | 21 | 208 | 4.8 | 17.7 | 0.00 | 0.00 | 0.00 | 60 | 1010.9 |
| 20260502215626 | 21 | 245 | 4.8 | 14.5 | 0.00 | 0.00 | 0.00 | 60 | 1010.9 |
| 20260502215526 | 21 | 252 | 3.2 | 14.5 | 0.00 | 0.00 | 0.00 | 60 | 1010.9 |
| 20260502215426 | 21 | 229 | 3.2 | 14.5 | 0.00 | 0.00 | 0.00 | 61 | 1011.0 |
| 20260502215326 | 21 | 288 | 4.8 | 14.5 | 0.00 | 0.00 | 0.00 | 61 | 1010.9 |
| 20260502215307 | 21 | 298 | 4.8 | 14.5 | 0.00 | 0.00 | 0.00 | 61 | 1010.9 |
| 20260502215229 | 21 | 298 | 4.8 | 16.1 | 0.00 | 0.00 | 0.00 | 63 | 1011.0 |
| 20260502215126 | 21 | 298 | 4.8 | 16.1 | 0.00 | 0.00 | 0.00 | 62 | 1011.0 |
| 20260502215026 | 21 | 242 | 4.8 | 16.1 | 0.00 | 0.00 | 0.00 | 61 | 1011.0 |
| 20260502214926 | 21 | 242 | 4.8 | 16.1 | 0.00 | 0.00 | 0.00 | 61 | 1011.0 |
| 20260502214827 | 21 | 239 | 4.8 | 16.1 | 0.00 | 0.00 | 0.00 | 61 | 1011.0 |
| 20260502214807 | 21 | 238 | 4.8 | 16.1 | 0.00 | 0.00 | 0.00 | 61 | 1011.0 |
| 20260502214725 | 21 | 233 | 6.4 | 16.1 | 0.00 | 0.00 | 0.00 | 61 | 1011.1 |
| 20260502214624 | 21 | 233 | 6.4 | 16.1 | 0.00 | 0.00 | 0.00 | 61 | 1011.1 |
| 20260502214524 | 21 | 273 | 8.0 | 16.1 | 0.00 | 0.00 | 0.00 | 61 | 1011.1 |
| 20260502214424 | 21 | 228 | 8.0 | 19.3 | 0.00 | 0.00 | 0.00 | 61 | 1011.1 |
| 20260502214324 | 21 | 246 | 8.0 | 19.3 | 0.00 | 0.00 | 0.00 | 61 | 1011.1 |
| 20260502214305 | 21 | 243 | 8.0 | 19.3 | 0.00 | 0.00 | 0.00 | 61 | 1011.1 |
| 20260502214224 | 21 | 256 | 6.4 | 19.3 | 0.00 | 0.00 | 0.00 | 63 | 1011.1 |
| 20260502214124 | 21 | 235 | 6.4 | 19.3 | 0.00 | 0.00 | 0.00 | 62 | 1011.1 |
| 20260502214024 | 21 | 218 | 6.4 | 19.3 | 0.00 | 0.00 | 0.00 | 62 | 1011.2 |
| 20260502213924 | 21 | 225 | 6.4 | 19.3 | 0.00 | 0.00 | 0.00 | 61 | 1011.2 |
| 20260502213824 | 21 | 222 | 6.4 | 19.3 | 0.00 | 0.00 | 0.00 | 61 | 1011.2 |
| 20260502213806 | 21 | 241 | 6.4 | 19.3 | 0.00 | 0.00 | 0.00 | 61 | 1011.2 |
| 20260502213727 | 21 | 273 | 6.4 | 19.3 | 0.00 | 0.00 | 0.00 | 60 | 1011.2 |
| 20260502213624 | 21 | 210 | 4.8 | 19.3 | 0.00 | 0.00 | 0.00 | 60 | 1011.2 |
| 20260502213525 | 21 | 282 | 4.8 | 19.3 | 0.00 | 0.00 | 0.00 | 60 | 1011.2 |
| 20260502213419 | 21 | 233 | 3.2 | 14.5 | 0.00 | 0.00 | 0.00 | 61 | 1011.2 |
| 20260502213306 | 21 | 257 | 3.2 | 14.5 | 0.00 | 0.00 | 0.00 | 62 | 1011.2 |
| 20260502213220 | 21 | 253 | 3.2 | 14.5 | 0.00 | 0.00 | 0.00 | 62 | 1011.2 |
| 20260502213121 | 21 | 223 | 4.8 | 14.5 | 0.00 | 0.00 | 0.00 | 61 | 1011.2 |
| 20260502213028 | 21 | 250 | 3.2 | 9.7 | 0.00 | 0.00 | 0.00 | 62 | 1011.3 |
| 20260502213020 | 21 | 229 | 3.2 | 14.5 | 0.00 | 0.00 | 0.00 | 60 | 1011.3 |
| 20260502212925 | 21 | 240 | 3.2 | 9.7 | 0.00 | 0.00 | 0.00 | 61 | 1011.3 |
| 20260502212916 | 21 | 248 | 3.2 | 9.7 | 0.00 | 0.00 | 0.00 | 62 | 1011.3 |
| 20260502212722 | 21 | 245 | 4.8 | 11.3 | 0.00 | 0.00 | 0.00 | 63 | 1011.3 |
| 20260502212620 | 21 | 194 | 4.8 | 19.3 | 0.00 | 0.00 | 0.00 | 63 | 1011.2 |
| 20260502212528 | 21 | 253 | 6.4 | 19.3 | 0.00 | 0.00 | 0.00 | 64 | 1011.3 |
| 20260502212520 | 21 | 307 | 4.8 | 19.3 | 0.00 | 0.00 | 0.00 | 64 | 1011.3 |
| 20260502212423 | 21 | 259 | 4.8 | 19.3 | 0.00 | 0.00 | 0.00 | 63 | 1011.3 |
| 20260502212415 | 21 | 252 | 6.4 | 19.3 | 0.00 | 0.00 | 0.00 | 64 | 1011.3 |
| 20260502212220 | 21 | 266 | 6.4 | 19.3 | 0.00 | 0.00 | 0.00 | 64 | 1011.3 |
| 20260502212120 | 21 | 259 | 6.4 | 19.3 | 0.00 | 0.00 | 0.00 | 63 | 1011.3 |
| 20260502212020 | 21 | 228 | 6.4 | 19.3 | 0.00 | 0.00 | 0.00 | 63 | 1011.3 |
| 20260502211920 | 21 | 239 | 8.0 | 19.3 | 0.00 | 0.00 | 0.00 | 63 | 1011.3 |
| 20260502211819 | 21 | 245 | 8.0 | 19.3 | 0.00 | 0.00 | 0.00 | 63 | 1011.3 |
| 20260502211804 | 21 | 210 | 8.0 | 19.3 | 0.00 | 0.00 | 0.00 | 63 | 1011.3 |
| 20260502211745 | 20 | 193 | 8.0 | 24.1 | 0.00 | 0.00 | 0.00 | 65 | 1011.4 |
| 20260502211720 | 21 | 264 | 9.7 | 24.1 | 0.00 | 0.00 | 0.00 | 63 | 1011.4 |
| 20260502211638 | 21 | 229 | 9.7 | 24.1 | 0.00 | 0.00 | 0.00 | 63 | 1011.4 |
| 20260502211516 | 21 | 187 | 9.7 | 24.1 | 0.00 | 0.00 | 0.00 | 64 | 1011.4 |
| 20260502211423 | 21 | 205 | 8.0 | 24.1 | 0.00 | 0.00 | 0.00 | 64 | 1011.4 |
| 20260502211414 | 20 | 218 | 8.0 | 24.1 | 0.00 | 0.00 | 0.00 | 65 | 1011.4 |
| 20260502211216 | 20 | 240 | 8.0 | 24.1 | 0.00 | 0.00 | 0.00 | 65 | 1011.4 |
| 20260502211114 | 20 | 257 | 8.0 | 24.1 | 0.00 | 0.00 | 0.00 | 64 | 1011.4 |
| 20260502211013 | 21 | 243 | 8.0 | 24.1 | 0.00 | 0.00 | 0.00 | 62 | 1011.4 |
| 20260502210914 | 21 | 215 | 6.4 | 24.1 | 0.00 | 0.00 | 0.00 | 62 | 1011.5 |
| 20260502210816 | 21 | 183 | 6.4 | 24.1 | 0.00 | 0.00 | 0.00 | 61 | 1011.5 |
| 20260502210806 | 21 | 225 | 6.4 | 24.1 | 0.00 | 0.00 | 0.00 | 61 | 1011.5 |
| 20260502210715 | 21 | 232 | 4.8 | 19.3 | 0.00 | 0.00 | 0.00 | 62 | 1011.5 |
| 20260502210614 | 21 | 161 | 4.8 | 14.5 | 0.00 | 0.00 | 0.00 | 61 | 1011.5 |
| 20260502210514 | 21 | 171 | 4.8 | 12.9 | 0.00 | 0.00 | 0.00 | 63 | 1011.5 |
| 20260502210415 | 21 | 232 | 6.4 | 12.9 | 0.00 | 0.00 | 0.00 | 64 | 1011.6 |
| 20260502210303 | 21 | 228 | 6.4 | 12.9 | 0.00 | 0.00 | 0.00 | 64 | 1011.5 |
| 20260502210210 | 21 | 226 | 6.4 | 12.9 | 0.00 | 0.00 | 0.00 | 64 | 1011.5 |
| 20260502210110 | 21 | 264 | 6.4 | 12.9 | 0.00 | 0.00 | 0.00 | 64 | 1011.5 |
| 20260502210010 | 21 | 288 | 6.4 | 12.9 | 0.00 | 0.00 | 0.00 | 63 | 1011.6 |
| 20260502205910 | 21 | 225 | 6.4 | 12.9 | 0.00 | 0.00 | 0.00 | 63 | 1011.6 |
| 20260502205814 | 21 | 217 | 4.8 | 12.9 | 0.00 | 0.00 | 0.00 | 63 | 1011.6 |
| 20260502205803 | 21 | 224 | 4.8 | 12.9 | 0.00 | 0.00 | 0.00 | 63 | 1011.6 |
| 20260502205711 | 21 | 217 | 4.8 | 11.3 | 0.00 | 0.00 | 0.00 | 63 | 1011.6 |
| 20260502205610 | 21 | 235 | 4.8 | 11.3 | 0.00 | 0.00 | 0.00 | 63 | 1011.6 |
| 20260502205510 | 21 | 154 | 4.8 | 11.3 | 0.00 | 0.00 | 0.00 | 63 | 1011.6 |
| 20260502205410 | 21 | 143 | 4.8 | 11.3 | 0.00 | 0.00 | 0.00 | 63 | 1011.6 |
| 20260502205305 | 21 | 273 | 4.8 | 11.3 | 0.00 | 0.00 | 0.00 | 64 | 1011.6 |
| 20260502205210 | 21 | 250 | 4.8 | 12.9 | 0.00 | 0.00 | 0.00 | 65 | 1011.6 |
| 20260502205110 | 21 | 224 | 4.8 | 14.5 | 0.00 | 0.00 | 0.00 | 64 | 1011.7 |
| 20260502205033 | 20 | 294 | 6.4 | 14.5 | 0.00 | 0.00 | 0.00 | 67 | 1011.6 |
| 20260502205010 | 21 | 233 | 6.4 | 14.5 | 0.00 | 0.00 | 0.00 | 66 | 1011.7 |
| 20260502204923 | 20 | 226 | 6.4 | 14.5 | 0.00 | 0.00 | 0.00 | 66 | 1011.7 |
| 20260502204915 | 20 | 287 | 6.4 | 14.5 | 0.00 | 0.00 | 0.00 | 67 | 1011.6 |
| 20260502204710 | 20 | 238 | 6.4 | 14.5 | 0.00 | 0.00 | 0.00 | 68 | 1011.7 |
| 20260502204610 | 20 | 235 | 6.4 | 14.5 | 0.00 | 0.00 | 0.00 | 67 | 1011.7 |
| 20260502204510 | 20 | 235 | 8.0 | 16.1 | 0.00 | 0.00 | 0.00 | 66 | 1011.8 |
| 20260502204406 | 20 | 221 | 8.0 | 16.1 | 0.00 | 0.00 | 0.00 | 66 | 1011.7 |
| 20260502204309 | 20 | 163 | 8.0 | 16.1 | 0.00 | 0.00 | 0.00 | 66 | 1011.8 |
| 20260502204206 | 20 | 217 | 6.4 | 16.1 | 0.00 | 0.00 | 0.00 | 66 | 1011.8 |
| 20260502204106 | 20 | 225 | 6.4 | 16.1 | 0.00 | 0.00 | 0.00 | 65 | 1011.8 |
| 20260502204006 | 20 | 245 | 6.4 | 20.9 | 0.00 | 0.00 | 0.00 | 66 | 1011.8 |
| 20260502203906 | 20 | 216 | 6.4 | 20.9 | 0.00 | 0.00 | 0.00 | 66 | 1011.8 |
| 20260502203807 | 20 | 260 | 6.4 | 20.9 | 0.00 | 0.00 | 0.00 | 66 | 1011.8 |
| 20260502203706 | 20 | 228 | 8.0 | 20.9 | 0.00 | 0.00 | 0.00 | 65 | 1011.8 |
| 20260502203607 | 20 | 242 | 8.0 | 20.9 | 0.00 | 0.00 | 0.00 | 64 | 1011.8 |
| 20260502203506 | 20 | 256 | 6.4 | 20.9 | 0.00 | 0.00 | 0.00 | 64 | 1011.9 |
| 20260502203406 | 20 | 253 | 6.4 | 20.9 | 0.00 | 0.00 | 0.00 | 64 | 1011.8 |